[{"header": {"dx": 0.06612293990616946, "dy": 0.0552356325346848, "nx": 98, "ny": 59, "la1": 35.046912555036876, "la2": 31.78801023549047, "lo1": -121.43107172385933, "lo2": -114.95102361305473, "refTime": "2026040910", "parameterCategory": 1, "parameterNumber": 2}, "data": [4.71, 4.71, 4.94, 4.94, 4.94, 4.94, 4.71, 4.41, 4.07, 3.43, 2.79, 1.9, 1.6, 1.34, 0.89, 0.89, 0.45, 0.0, -0.71, -0.71, -0.71, 0.0, 0.63, 1.2, 1.7, 2.12, 2.17, 2.17, 2.24, 2.24, 2.6, 2.8, 2.8, 3.32, 3.74, 4.24, 5.31, 5.81, 5.36, 4.47, 4.02, 4.47, 5.73, 7.31, 9.8, 11.44, 14.07, 14.7, 14.74, 12.72, 5.16, 1.84, 2.98, 4.11, 4.43, 4.65, 5.69, 6.39, 7.07, 7.07, 7.28, 7.03, 6.64, 5.46, 4.46, 4.46, 5.46, 7.03, 8.24, 10.68, 11.45, 8.91, 5.44, 3.32, 3.74, 5.43, 2.91, 0.0, -1.34, -1.86, -1.58, -1.2, -0.8, -1.26, -1.86, -1.49, -0.6, 0.0, 1.24, 3.14, 6.7, 7.33, 7.64, 8.3, 8.32, 8.3, 8.24, 7.6, 4.71, 4.71, 4.71, 4.71, 4.94, 4.71, 4.71, 4.41, 4.07, 3.48, 2.84, 2.53, 1.9, 1.6, 1.58, 1.79, 0.0, 0.0, 0.0, -0.61, -0.76, -0.65, 0.0, 0.95, 2.12, 2.6, 2.6, 2.12, 1.34, 0.89, 0.89, 1.7, 2.12, 2.4, 3.07, 3.97, 5.36, 6.26, 5.77, 4.87, 4.41, 5.94, 8.22, 9.3, 11.54, 13.11, 14.47, 14.11, 12.51, 5.86, 2.53, 2.73, 4.46, 4.41, 4.07, 4.65, 6.06, 6.7, 7.06, 7.67, 7.67, 7.67, 7.07, 6.08, 5.43, 5.43, 6.08, 7.03, 8.14, 10.15, 10.68, 9.49, 6.36, 4.24, 3.74, 5.86, 7.98, 0.0, -1.34, -1.86, -1.58, -1.2, -0.8, -1.26, -1.86, -1.49, -0.6, 0.0, 1.24, 3.14, 6.7, 7.33, 7.64, 8.3, 8.32, 8.3, 8.24, 7.6, 4.71, 4.71, 4.71, 4.71, 4.71, 4.71, 4.37, 4.11, 4.07, 3.48, 2.86, 2.51, 2.53, 1.9, 2.0, 1.26, 1.26, 0.6, 0.0, 0.0, -0.59, -0.7, 0.0, 0.0, 1.24, 2.4, 2.68, 2.24, 1.79, 0.45, 0.0, 0.0, 0.63, 1.34, 2.68, 3.58, 5.36, 6.66, 6.55, 6.28, 6.9, 8.94, 10.86, 11.76, 13.04, 13.41, 12.52, 9.27, 4.41, 3.45, 4.46, 5.43, 5.05, 4.46, 4.07, 4.65, 6.06, 6.7, 7.67, 7.67, 7.67, 7.67, 7.07, 6.44, 6.06, 6.39, 7.32, 8.3, 8.67, 9.84, 10.8, 10.68, 8.91, 6.55, 3.97, 5.31, 9.26, 3.58, 0.0, -1.6, -0.8, -1.34, -2.0, -3.07, -3.32, -2.6, -1.26, 0.0, 1.88, 5.09, 8.68, 8.65, 7.9, 7.9, 7.68, 6.07, 5.6, 6.54, 4.71, 4.71, 4.71, 4.71, 4.71, 4.71, 4.37, 4.11, 3.79, 3.48, 2.86, 2.48, 2.41, 1.74, 1.9, 1.9, 1.9, 2.21, 0.54, 0.0, 0.0, 0.0, 0.0, -0.63, 0.0, 0.85, 1.86, 2.24, 2.24, 1.79, 0.0, -0.53, -1.16, 0.0, 1.86, 3.47, 5.51, 7.31, 8.0, 8.32, 9.56, 11.06, 11.38, 10.81, 9.92, 9.2, 6.55, 4.87, 5.43, 6.54, 6.64, 6.28, 5.05, 4.11, 4.36, 5.37, 6.44, 7.07, 7.28, 8.0, 8.0, 7.6, 7.07, 6.06, 6.32, 7.02, 8.03, 8.23, 9.21, 10.09, 11.88, 12.29, 10.95, 8.67, 5.32, 4.47, 7.56, 8.49, 2.24, -0.89, -0.89, -1.34, -2.91, -3.82, -3.97, -2.63, -0.63, 0.57, 2.79, 7.64, 9.66, 8.3, 6.95, 4.11, 2.4, 2.68, 4.43, 6.55, 4.71, 4.71, 4.71, 4.71, 4.71, 4.71, 4.37, 4.11, 3.49, 3.2, 2.86, 2.22, 2.41, 2.23, 1.8, 1.6, 1.74, 1.98, 0.54, 0.0, -0.7, 0.0, 0.0, -0.7, -1.41, -0.87, 0.0, 1.58, 2.54, 3.07, 1.86, 0.0, -2.12, -1.49, 1.14, 4.21, 4.46, 7.27, 8.53, 9.4, 10.12, 9.56, 8.3, 6.79, 6.71, 7.12, 7.71, 8.19, 8.36, 8.46, 7.01, 5.86, 4.84, 4.43, 5.43, 6.08, 6.64, 7.03, 7.28, 8.14, 7.6, 7.03, 5.72, 6.01, 6.64, 8.03, 7.95, 7.68, 8.3, 9.92, 12.39, 13.75, 12.72, 11.18, 8.46, 4.43, 3.6, 3.58, 1.61, -0.8, -0.99, -1.86, -3.32, -4.24, -3.82, -1.9, 0.71, 2.51, 6.24, 8.6, 8.3, 6.68, 2.51, 0.0, -0.0, 2.49, 5.36, 8.36, 4.43, 4.71, 4.71, 4.71, 4.71, 4.71, 4.71, 4.11, 3.49, 3.2, 2.86, 2.22, 2.68, 2.68, 2.68, 2.0, 1.8, 2.0, 1.66, 0.0, -0.78, -1.52, -0.96, -0.87, -0.98, -0.96, -0.88, 0.0, 0.87, 2.53, 2.8, 1.24, 0.0, 0.0, 0.7, 2.21, 3.78, 6.71, 9.48, 8.01, 6.05, 5.69, 4.24, 6.26, 8.91, 9.81, 10.28, 10.28, 9.39, 8.05, 6.71, 5.59, 4.84, 4.46, 5.09, 6.4, 6.0, 5.43, 6.64, 8.14, 7.6, 5.69, 5.37, 6.01, 7.33, 8.3, 7.69, 7.06, 7.06, 9.27, 11.87, 12.87, 13.07, 13.29, 12.77, 8.49, 2.5, 0.45, 0.65, -0.45, -1.84, -1.84, -3.14, -3.72, -3.16, -0.57, 2.2, 6.58, 8.22, 7.59, 7.02, 4.46, 1.6, -0.8, -0.0, 3.53, 7.71, 8.91, 3.83, 4.11, 4.71, 4.71, 4.71, 4.71, 4.71, 4.11, 3.49, 3.12, 2.4, 2.2, 2.68, 2.84, 2.73, 2.3, 2.53, 2.6, 3.11, 2.04, 0.63, 0.0, -2.18, -2.35, -2.06, -2.09, -1.05, 0.0, 0.0, 0.0, 0.85, 0.95, 1.24, 1.49, 2.12, 2.11, 2.21, 5.43, 7.59, 5.3, 3.45, 2.16, 3.91, 6.52, 10.21, 10.52, 11.18, 10.49, 9.26, 9.77, 8.05, 4.24, 4.46, 4.46, 4.46, 4.8, 4.46, 4.46, 5.6, 6.94, 6.54, 5.09, 5.43, 6.7, 6.64, 7.03, 7.07, 6.25, 6.54, 9.11, 10.62, 10.62, 10.96, 13.21, 14.67, 13.32, 6.22, 2.15, 2.79, 4.02, -1.41, -1.41, -2.11, -2.11, -1.45, 0.69, 4.68, 6.97, 7.52, 6.01, 2.51, 0.6, -0.63, -1.2, 0.45, 3.6, 8.14, 8.63, 3.83, 4.11, 4.71, 4.71, 4.71, 4.43, 4.43, 4.12, 3.49, 2.84, 2.36, 1.67, 1.83, 2.68, 3.79, 2.79, 3.35, 4.01, 3.64, 3.16, 3.07, 3.13, 2.5, 0.0, -2.28, -2.04, -1.09, -1.09, -2.06, -1.96, -0.96, 0.0, 0.0, 3.0, 3.51, 2.97, 2.06, 3.78, 5.46, 5.44, 4.22, 3.3, 4.48, 6.42, 7.43, 7.65, 8.32, 9.6, 8.4, 7.98, 3.58, 3.32, 4.09, 4.84, 4.84, 4.84, 4.46, 5.09, 6.07, 6.54, 6.07, 5.43, 5.86, 6.28, 4.93, 4.09, 6.4, 6.55, 5.77, 7.12, 8.46, 8.91, 10.28, 12.07, 12.52, 11.99, 10.52, 8.55, 8.91, 11.6, 6.25, 0.0, -0.65, 0.0, 0.69, 2.82, 5.0, 6.31, 5.3, 1.24, -0.89, -2.4, -2.17, -0.89, 1.49, 4.4, 7.67, 7.85, 3.83, 4.11, 4.71, 4.71, 4.74, 4.74, 4.74, 4.74, 4.12, 3.47, 2.77, 1.73, 1.14, 1.67, 2.51, 3.33, 3.33, 3.33, 3.22, 2.84, 2.68, 4.92, 6.26, 3.74, 1.41, 0.0, -1.01, -3.17, -4.44, -2.06, -0.99, 0.0, 0.0, 2.1, 2.97, 3.15, 3.14, 3.11, 4.0, 5.21, 4.2, 4.2, 4.4, 2.99, 1.6, 1.16, 2.15, 3.22, 3.58, 3.07, 4.29, 2.84, 3.84, 4.46, 5.09, 5.43, 6.08, 6.7, 7.42, 7.6, 7.47, 6.94, 6.55, 4.73, 3.07, 4.09, 6.79, 7.45, 5.32, 5.77, 6.66, 8.91, 10.73, 11.18, 10.28, 9.36, 8.82, 10.49, 12.87, 15.58, 12.96, 0.62, 0.0, 0.65, 2.0, 2.75, 4.07, 5.0, 2.21, -0.0, -1.0, -1.58, -1.79, 0.0, 2.68, 5.6, 7.67, 7.28, 3.83, 4.11, 4.43, 4.43, 4.74, 5.01, 5.01, 4.45, 4.12, 3.85, 3.4, 4.0, 3.52, 2.87, 1.62, 2.47, 3.25, 3.25, 2.28, 2.06, 2.21, 3.4, 5.37, 6.32, 4.19, 0.96, 0.0, -3.0, -4.6, -2.23, 0.0, 0.0, 0.0, 0.0, 0.0, 1.96, 4.19, 3.79, 4.44, 2.8, 1.4, 1.2, 1.58, 0.63, -0.0, -0.0, 0.0, -0.0, 0.61, 0.63, 1.8, 2.79, 4.46, 5.09, 5.43, 6.06, 7.44, 7.67, 8.55, 8.82, 8.63, 8.19, 9.33, 4.73, 3.49, 4.46, 7.06, 7.56, 5.94, 5.64, 7.45, 10.26, 11.18, 10.73, 10.28, 9.83, 8.91, 9.26, 11.09, 14.29, 16.99, 11.99, 0.61, 0.63, 1.13, 1.84, 2.51, 2.79, 2.24, 1.26, 0.6, -0.0, 0.0, 0.54, 3.14, 6.64, 7.67, 6.32, 3.83, 3.83, 4.12, 4.43, 4.74, 5.01, 5.06, 5.06, 4.75, 4.47, 4.46, 5.08, 5.32, 4.6, 3.36, 3.07, 4.21, 3.41, 2.85, 2.28, 2.3, 3.2, 4.13, 4.75, 3.98, 1.07, 0.0, -2.04, -3.34, -1.09, 1.05, 1.58, 0.0, -1.58, -2.31, 0.0, 4.2, 5.46, 3.15, 1.86, 0.71, 0.57, 1.26, 0.71, 0.71, 0.57, -0.0, -0.0, -0.0, 0.66, 1.84, 3.14, 4.09, 5.46, 6.08, 7.07, 8.55, 8.91, 9.26, 9.81, 9.36, 8.46, 6.66, 4.8, 5.09, 6.7, 8.55, 8.55, 7.6, 8.4, 10.16, 11.15, 11.18, 10.73, 10.73, 11.6, 10.08, 8.55, 9.74, 12.14, 14.79, 15.14, 8.38, 0.53, 1.26, 2.17, 2.91, 3.07, 2.68, 2.63, 2.24, 1.7, 0.57, 1.0, 3.16, 7.67, 8.24, 5.46, 3.83, 3.83, 4.12, 4.43, 4.74, 5.35, 5.06, 5.37, 5.08, 5.08, 5.1, 5.08, 5.98, 6.35, 6.97, 6.08, 5.08, 4.6, 4.51, 4.1, 3.99, 3.37, 2.87, 3.06, 2.09, 1.99, 0.96, 0.0, -0.63, -0.96, 0.0, 0.63, 0.0, -0.6, -0.63, 0.0, 1.26, 1.84, 0.63, 0.57, 0.61, 0.54, 0.63, 1.2, 1.2, 0.63, 0.45, -0.0, 0.71, 1.0, 2.12, 2.63, 3.53, 4.24, 5.34, 7.28, 8.82, 9.36, 9.36, 9.26, 8.46, 7.15, 5.16, 3.14, 3.79, 7.07, 9.27, 9.84, 9.74, 10.75, 11.42, 11.54, 11.18, 10.28, 10.26, 12.3, 11.66, 9.74, 9.78, 10.73, 11.2, 11.4, 10.26, 2.4, 1.7, 2.63, 3.53, 3.53, 3.13, 3.58, 3.13, 2.49, 1.86, 1.16, 3.43, 7.69, 7.28, 3.6, 3.83, 3.83, 4.12, 4.43, 4.74, 5.35, 5.65, 5.65, 5.69, 5.38, 5.38, 5.72, 6.35, 6.7, 8.19, 8.08, 6.79, 5.65, 5.71, 6.35, 6.67, 6.59, 5.65, 4.69, 4.8, 5.34, 6.26, 6.71, 5.81, 4.02, 2.6, 2.24, 2.4, 2.6, 1.79, 0.0, -0.63, -0.6, -0.71, -0.0, 0.57, 0.45, 0.4, 0.99, 1.58, 0.71, 0.0, 0.0, 0.0, 1.24, 1.61, 1.88, 2.79, 3.45, 4.98, 6.79, 7.52, 8.94, 7.92, 4.66, 3.13, 3.07, 2.68, 2.5, 3.32, 4.24, 7.06, 9.74, 10.15, 10.52, 10.75, 10.32, 9.72, 8.94, 10.02, 11.95, 11.72, 9.74, 8.66, 7.85, 5.31, 5.6, 10.18, 10.95, 3.51, 3.97, 4.24, 3.82, 3.13, 3.58, 4.02, 3.58, 3.07, 2.53, 4.43, 7.32, 4.66, 3.07, 3.83, 3.83, 4.12, 4.43, 4.74, 5.35, 5.65, 5.98, 5.69, 6.01, 5.71, 6.01, 6.35, 7.32, 8.22, 8.73, 8.0, 7.23, 6.7, 7.35, 8.43, 9.42, 9.91, 10.22, 10.28, 10.73, 11.16, 11.61, 11.57, 11.05, 9.77, 6.26, 5.81, 3.13, 2.24, -0.0, -0.0, -0.0, -0.57, -0.0, 0.45, 0.63, 0.85, 0.87, 0.85, 0.0, 0.0, 0.0, 0.0, 0.0, 0.88, 1.98, 3.35, 4.2, 4.98, 4.14, 4.43, 7.52, 7.52, 1.34, -0.95, -0.0, 1.6, 2.24, 2.6, 3.07, 4.02, 6.22, 10.23, 8.67, 9.74, 10.48, 10.15, 8.82, 8.82, 8.19, 4.87, 3.58, 3.07, 3.07, 2.15, 3.79, 8.76, 10.8, 7.73, 7.47, 6.54, 3.39, 3.13, 3.53, 4.47, 4.47, 3.97, 4.0, 5.09, 5.43, 3.82, 3.13, 4.12, 4.12, 4.12, 4.43, 4.74, 5.06, 5.65, 6.23, 6.28, 6.28, 6.01, 6.34, 6.67, 7.3, 8.22, 8.78, 9.01, 8.55, 7.9, 7.9, 8.82, 10.21, 11.13, 11.86, 12.4, 12.47, 12.95, 12.96, 12.96, 12.52, 11.62, 10.28, 8.43, 4.34, 1.34, -0.0, -0.0, -0.0, -0.0, -0.0, 0.89, 2.4, 1.9, 0.0, 0.0, 0.0, 0.0, 0.0, 0.0, 0.0, 0.0, 2.09, 3.4, 1.83, 1.6, 1.49, 1.83, 5.36, 7.48, 1.7, -1.6, -0.89, 0.45, 1.26, 1.4, 1.6, 2.41, 5.37, 4.38, 3.95, 6.7, 9.52, 10.27, 8.36, 4.47, 1.9, 1.16, 1.88, 1.9, 2.12, 2.12, 2.53, 5.72, 7.73, 6.25, 8.3, 7.03, 3.53, 2.68, 3.13, 4.47, 4.88, 5.02, 4.93, 5.34, 3.82, 3.82, 3.82, 4.12, 4.12, 4.12, 4.43, 4.74, 5.06, 5.65, 6.23, 6.28, 6.62, 6.32, 6.32, 6.95, 7.27, 7.6, 8.19, 8.73, 9.21, 9.1, 8.96, 9.2, 9.71, 10.91, 12.04, 12.77, 13.75, 14.29, 14.75, 14.75, 14.3, 13.41, 12.52, 11.11, 7.52, 0.89, -0.0, -0.0, 1.24, 1.9, 1.79, 1.79, 2.17, 3.58, 0.95, -0.0, -1.2, -1.0, 0.45, 0.0, 0.0, 0.0, 1.2, 1.26, 0.89, 0.45, 0.63, 1.6, 3.48, 3.51, 1.2, 0.45, -0.45, 0.0, 0.0, 0.71, 0.79, 2.2, 1.66, 1.6, 2.8, 4.73, 8.02, 8.94, 4.92, 1.26, -0.0, 1.35, 2.73, 2.51, 2.53, 2.68, 3.13, 3.32, 4.4, 3.07, 1.26, 3.45, 3.07, 2.24, 3.07, 4.3, 4.66, 4.0, 4.73, 6.85, 4.52, 4.11, 4.11, 4.12, 4.12, 4.12, 4.43, 4.74, 5.06, 5.65, 6.23, 6.28, 6.87, 6.87, 6.92, 6.92, 6.95, 7.27, 7.86, 8.45, 9.3, 10.02, 9.88, 9.92, 10.18, 10.66, 11.84, 12.47, 13.85, 14.3, 15.2, 15.2, 14.75, 14.29, 13.85, 12.4, 9.6, 1.86, 0.0, 0.63, 1.79, 2.24, 2.24, 2.4, 1.9, 2.0, 1.34, -0.0, -1.9, -2.4, -1.58, -1.58, -1.58, -0.0, -0.0, -0.0, -0.0, -0.0, 0.0, 0.95, 1.34, 0.45, 0.45, 0.45, -1.34, -1.58, -1.26, 0.0, 1.61, 0.79, -0.73, 0.0, 2.68, 7.52, 8.52, 8.24, 3.72, -0.0, -0.0, 1.4, 4.46, 5.37, 4.11, 4.46, 4.93, 4.43, 3.98, 2.15, 0.0, 0.0, 1.2, 2.5, 5.6, 7.33, 4.66, 3.35, 4.66, 6.64, 5.6, 4.27, 4.27, 4.12, 4.12, 4.12, 4.43, 4.74, 5.06, 5.65, 6.23, 6.52, 6.87, 7.21, 6.92, 6.92, 6.92, 6.95, 7.55, 8.45, 9.3, 9.63, 9.92, 10.77, 11.24, 11.28, 11.49, 12.52, 13.86, 15.19, 15.63, 15.64, 15.6, 15.1, 14.13, 13.67, 11.71, 6.8, 1.9, 1.0, 1.74, 2.21, 1.9, 1.9, 1.49, 0.8, 0.0, -1.79, -2.24, -2.24, -2.4, -2.8, -2.8, -1.4, -1.2, -1.58, -1.26, 0.89, 0.45, 1.34, 1.26, -0.0, 0.45, 0.89, -0.95, -1.9, -2.48, -2.2, -0.57, 0.0, -0.88, 0.0, 3.97, 9.38, 8.3, 4.41, 1.24, -1.26, -0.57, 2.11, 6.32, 7.95, 7.28, 5.69, 6.36, 6.55, 3.2, 0.57, 0.0, 1.33, 1.24, 2.79, 6.7, 7.28, 4.66, 3.72, 5.36, 6.7, 5.09, 4.73, 4.73, 4.43, 4.12, 4.43, 4.74, 4.74, 5.06, 5.65, 6.23, 6.52, 6.87, 7.44, 7.44, 6.92, 6.92, 6.92, 7.27, 7.55, 8.15, 8.27, 9.21, 11.28, 12.3, 11.12, 9.6, 9.33, 12.51, 12.46, 13.35, 13.78, 14.31, 14.21, 14.16, 13.73, 12.78, 10.11, 6.23, 4.1, 3.42, 2.2, 1.6, 0.54, 0.0, -0.8, -1.6, -2.68, -1.79, -1.79, -2.68, -2.8, -2.8, -1.9, -1.2, -1.2, -0.0, -0.0, -0.0, 1.34, 1.34, 1.34, 0.89, 0.45, 1.34, -2.21, -1.88, -3.72, -2.07, -0.63, 1.13, 2.82, 5.46, 7.95, 8.94, 10.25, 7.01, 3.39, 1.7, 3.07, 4.88, 8.82, 9.26, 7.6, 7.6, 6.67, 4.52, 2.07, 1.23, 2.26, 4.8, 6.14, 6.51, 6.01, 6.32, 6.08, 5.06, 5.06, 5.46, 5.09, 5.09, 4.43, 4.43, 4.43, 4.74, 4.74, 5.06, 5.65, 6.23, 6.79, 6.87, 7.44, 7.44, 7.21, 6.92, 7.25, 7.25, 6.95, 6.32, 6.01, 7.67, 10.8, 12.28, 11.5, 9.27, 8.93, 10.28, 11.16, 11.88, 12.95, 13.82, 14.22, 14.03, 13.62, 13.32, 11.2, 8.0, 5.71, 5.1, 4.45, 2.0, 0.0, -2.0, -2.91, -2.97, -3.07, -2.24, -2.68, -2.97, -3.39, -2.21, -2.21, -2.21, -1.4, -0.0, -0.0, 0.6, 2.24, 1.2, 0.63, 0.0, -0.89, -2.24, -2.53, -3.79, -2.53, -2.21, -1.24, 1.34, 3.82, 5.81, 8.67, 12.29, 15.36, 15.9, 12.49, 6.0, 4.43, 6.39, 9.33, 9.26, 8.82, 8.36, 7.92, 4.73, 2.53, 1.13, 1.8, 2.48, 5.52, 4.87, 4.6, 6.88, 7.59, 5.21, 4.22, 5.59, 6.01, 6.01, 4.74, 4.43, 4.43, 4.74, 4.74, 5.06, 5.65, 6.23, 6.79, 6.87, 7.44, 7.44, 7.44, 7.44, 7.51, 6.92, 6.32, 6.01, 5.72, 7.52, 10.18, 11.23, 10.94, 10.36, 10.4, 10.69, 10.88, 11.72, 12.27, 13.09, 13.48, 13.71, 13.31, 12.62, 11.6, 9.1, 6.59, 6.28, 6.23, 4.84, 1.9, -0.6, -2.0, -2.91, -3.13, -3.13, -2.97, -3.39, -3.39, -2.53, -2.53, -2.53, -2.53, -1.4, -0.0, 0.6, 1.2, 0.45, 0.0, -1.26, -1.79, -3.2, -3.72, -4.77, -2.6, -2.6, -1.86, -0.0, 2.5, 5.72, 7.27, 9.56, 13.68, 15.41, 13.41, 9.65, 7.11, 7.79, 8.53, 8.32, 8.55, 8.63, 8.36, 5.36, 2.68, 0.63, 0.0, 1.26, 3.07, 3.15, 4.46, 6.71, 7.52, 4.8, 3.51, 4.8, 4.87, 4.87, 4.74, 4.74, 4.74, 4.74, 4.74, 5.06, 5.65, 6.23, 6.57, 6.87, 7.44, 7.44, 7.44, 7.44, 7.44, 7.21, 6.59, 6.64, 7.6, 9.19, 10.4, 10.36, 10.06, 9.77, 10.36, 11.72, 11.62, 12.03, 12.28, 12.28, 12.62, 12.62, 12.83, 12.33, 11.41, 9.48, 7.09, 6.28, 6.79, 6.95, 6.1, 3.88, 1.58, 0.0, -0.8, -1.79, -2.4, -3.39, -3.39, -2.98, -2.53, -2.53, -2.53, -1.4, -0.0, -0.0, -0.57, -1.6, -1.34, -1.26, -1.34, -1.86, -2.4, -2.6, -2.6, -2.6, -2.12, -0.63, 0.57, 0.7, 1.03, 6.71, 12.76, 14.26, 3.48, 4.23, 4.79, 5.72, 6.2, 6.21, 7.27, 7.46, 7.71, 6.26, 4.47, 2.68, 0.45, 0.6, 3.16, 5.69, 6.32, 6.44, 6.87, 4.02, 1.76, 1.94, 3.79, 3.79, 4.74, 4.74, 4.74, 4.74, 5.01, 5.06, 5.65, 6.23, 6.57, 7.15, 7.44, 7.44, 7.44, 7.44, 7.44, 6.87, 6.92, 7.23, 8.52, 9.72, 10.88, 11.07, 9.86, 9.37, 9.94, 11.34, 12.28, 12.62, 12.6, 12.6, 12.78, 12.78, 12.78, 12.3, 11.81, 10.42, 8.28, 7.07, 6.44, 7.23, 8.0, 7.71, 6.6, 4.9, 2.68, 0.89, -0.45, -2.4, -3.39, -3.39, -2.98, -2.53, -1.98, -0.99, -0.0, -0.0, -1.88, -1.86, -0.89, 0.45, 0.0, -0.63, -0.57, -1.24, -1.49, -1.2, -0.57, -0.0, -0.0, -0.6, -1.26, 1.26, 13.21, 8.44, 0.6, 0.0, 1.39, 3.53, 4.17, 4.79, 5.47, 6.14, 5.72, 5.44, 5.64, 4.3, 2.68, 1.84, 2.98, 6.32, 7.61, 6.87, 5.31, 1.61, 0.0, 1.6, 3.38, 3.38, 4.74, 4.74, 4.74, 4.74, 5.35, 5.06, 5.65, 5.98, 6.57, 7.15, 7.09, 7.44, 7.44, 7.44, 7.44, 6.87, 7.17, 7.55, 8.45, 9.66, 10.51, 10.96, 10.3, 10.16, 9.76, 10.83, 11.99, 12.62, 13.09, 13.26, 13.41, 13.41, 13.41, 13.41, 12.51, 11.56, 9.51, 8.0, 7.23, 7.23, 7.76, 8.28, 8.51, 7.81, 6.1, 4.6, 1.79, 0.45, -2.24, -2.4, -2.53, -2.53, -2.23, -1.13, -1.13, -1.27, -1.88, -1.9, 0.45, 0.89, 0.89, 0.0, -0.0, -0.0, -0.61, -0.0, -0.0, 1.6, 1.26, 0.45, -0.57, 8.4, 13.67, 11.62, 3.13, 0.0, 0.0, 1.1, 2.95, 2.82, 3.41, 4.23, 4.8, 5.35, 5.06, 4.75, 3.43, 2.11, 2.88, 3.72, 6.32, 4.07, 2.53, 1.34, 1.34, 2.23, 3.78, 3.78, 4.74, 4.74, 4.74, 4.74, 4.74, 5.35, 5.65, 5.98, 6.23, 6.79, 7.35, 7.72, 7.44, 7.44, 7.44, 7.44, 7.44, 8.08, 8.73, 9.59, 10.51, 10.79, 10.83, 10.68, 10.55, 10.68, 11.6, 12.11, 13.24, 13.51, 13.57, 13.73, 13.88, 13.88, 13.88, 12.78, 11.39, 9.71, 8.68, 7.76, 7.76, 8.28, 8.91, 8.6, 7.81, 6.6, 4.9, 1.86, -0.45, -1.49, -2.21, -2.23, -2.48, -2.23, -1.98, -2.48, -2.95, -2.5, -1.2, 0.45, 2.24, 2.17, 1.2, -0.0, -0.0, -0.0, -0.0, 0.61, 0.61, 0.0, 1.35, 6.06, 12.58, 12.96, 12.43, 8.82, 3.98, 1.86, 1.08, 1.49, 2.1, 3.33, 4.8, 4.66, 4.46, 3.64, 2.8, 1.3, 1.23, 1.13, 1.49, 2.79, 2.4, 2.68, 3.07, 3.72, 3.78, 3.78, 5.01, 5.01, 5.01, 5.01, 5.01, 5.35, 5.06, 5.65, 6.23, 6.79, 7.15, 7.72, 7.72, 7.72, 7.44, 7.44, 7.44, 8.08, 8.73, 9.66, 9.94, 10.41, 10.41, 10.83, 11.08, 11.08, 11.82, 12.33, 12.83, 13.32, 13.32, 13.99, 14.16, 13.73, 13.88, 13.69, 12.78, 11.62, 10.21, 8.96, 8.68, 8.28, 8.68, 9.01, 8.72, 8.0, 6.3, 4.19, 2.6, 0.89, -0.0, -1.84, -3.22, -3.49, -2.95, -3.22, -3.48, -3.16, -1.6, 0.45, 1.79, 3.04, 2.53, 0.59, -0.0, -0.0, -0.0, 0.61, -0.0, 0.0, 1.23, 4.74, 9.11, 13.41, 14.57, 14.17, 14.62, 10.26, 3.16, 1.3, 2.11, 3.53, 4.15, 4.12, 2.54, 1.94, 1.23, 0.63, 0.0, -0.54, -0.63, 2.0, 3.07, 4.0, 4.52, 4.52, 4.52, 4.52, 5.01, 5.01, 5.01, 5.01, 5.35, 5.35, 5.06, 5.65, 6.23, 6.79, 7.15, 7.35, 7.72, 7.72, 7.9, 7.44, 8.0, 8.37, 8.65, 8.94, 9.86, 9.86, 10.04, 10.68, 10.83, 11.6, 11.82, 12.33, 12.33, 12.83, 13.32, 13.09, 13.51, 13.51, 14.16, 14.16, 13.69, 12.78, 12.11, 10.91, 10.91, 10.0, 9.71, 9.01, 8.72, 8.0, 7.26, 6.47, 5.57, 4.34, 2.68, -0.0, -2.22, -4.12, -3.07, -1.88, -3.16, -3.35, -2.8, -2.17, 0.45, 1.24, 2.15, 1.27, 1.08, -0.0, -0.0, 0.63, 0.45, 0.57, 1.27, 3.15, 6.64, 9.26, 10.02, 11.88, 15.61, 15.39, 5.2, 0.67, 1.47, 2.88, 3.53, 3.44, 2.06, 1.84, 0.7, 0.0, -0.54, -0.63, -0.45, 0.89, 3.07, 3.16, 4.41, 4.93, 5.2, 5.2, 5.01, 5.01, 5.01, 5.35, 5.35, 5.35, 5.35, 5.65, 5.65, 6.57, 6.79, 7.35, 7.72, 7.72, 7.9, 8.0, 8.0, 8.37, 8.65, 9.21, 9.21, 9.76, 10.13, 10.3, 10.83, 11.47, 11.6, 12.11, 12.83, 12.83, 13.02, 13.02, 13.02, 13.09, 13.69, 13.73, 13.73, 13.69, 12.6, 11.62, 10.91, 10.4, 9.48, 9.01, 8.96, 8.77, 8.87, 7.43, 7.4, 6.51, 5.09, 2.63, -0.0, -2.84, -4.12, -2.21, -3.35, -3.35, -3.32, -3.39, -2.4, -0.57, 0.53, 1.16, 1.2, 1.6, 1.26, 0.95, 0.0, 0.6, 1.9, 3.14, 4.46, 4.09, 4.73, 10.26, 13.84, 13.86, 6.26, 1.8, 0.69, 2.93, 4.65, 3.37, 2.12, 0.67, -0.62, -1.27, 0.0, 0.63, 0.63, 1.2, 2.4, 2.84, 3.15, 4.43, 5.36, 5.36, 5.01, 5.01, 5.35, 5.35, 5.35, 5.35, 5.35, 5.65, 5.65, 6.23, 6.79, 7.15, 7.35, 7.72, 7.9, 8.27, 8.0, 8.55, 8.93, 9.1, 9.21, 9.21, 9.58, 9.76, 10.3, 10.55, 11.08, 11.99, 12.11, 12.83, 13.02, 13.02, 12.6, 13.21, 13.26, 13.69, 13.73, 13.73, 13.09, 12.11, 10.91, 10.4, 9.35, 8.0, 6.79, 8.03, 9.37, 10.14, 9.91, 8.17, 6.6, 4.8, 1.7, -1.0, -3.2, -3.79, -3.72, -3.93, -3.45, -4.0, -3.6, -1.58, -0.0, 0.6, 1.24, 0.59, 1.13, 0.89, 0.0, 0.0, 1.7, 3.98, 5.64, 5.09, 6.05, 10.24, 11.88, 10.95, 7.12, 3.39, 1.27, 2.99, 4.65, 4.54, 1.26, 0.0, -2.4, -1.6, 0.0, 1.26, 0.57, 0.57, 1.26, 2.15, 2.23, 3.38, 4.71, 4.71, 5.35, 5.35, 5.35, 5.35, 5.35, 5.35, 5.35, 5.93, 5.65, 6.23, 6.23, 6.79, 7.35, 7.72, 7.9, 8.27, 8.0, 8.55, 8.55, 9.1, 9.1, 9.48, 9.1, 9.48, 10.02, 10.55, 11.08, 11.6, 12.11, 12.33, 12.6, 12.6, 12.78, 13.21, 13.26, 13.69, 13.73, 14.16, 13.57, 13.02, 11.82, 10.4, 9.63, 7.9, 6.56, 6.07, 9.54, 11.08, 10.71, 9.88, 7.9, 5.93, 3.35, 0.45, -1.88, -4.07, -5.21, -5.21, -4.0, -4.93, -3.82, -2.24, 0.45, -0.45, -0.0, -0.0, -0.0, 0.65, 0.89, 0.0, 0.95, 3.58, 7.56, 9.81, 9.3, 10.12, 10.81, 9.27, 7.2, 4.73, 2.79, 3.49, 4.72, 5.2, 3.35, 0.0, -1.13, -1.24, -0.6, -0.6, -0.57, 0.0, 0.57, 1.86, 1.61, 2.73, 4.02, 4.02, 5.35, 5.35, 5.35, 5.35, 5.35, 5.35, 5.59, 5.59, 5.93, 5.88, 6.23, 6.79, 7.35, 7.35, 7.9, 8.27, 8.27, 8.55, 8.55, 9.1, 9.1, 9.1, 9.1, 9.1, 9.63, 10.02, 10.55, 11.08, 11.62, 12.11, 12.53, 12.6, 12.6, 13.02, 13.09, 13.51, 13.99, 13.99, 13.99, 13.51, 12.33, 11.08, 9.63, 8.0, 6.79, 7.07, 9.65, 11.08, 10.3, 9.21, 7.09, 5.01, 4.11, 2.5, 0.45, -2.53, -4.65, -5.75, -6.51, -5.64, -4.02, -2.6, -1.49, -1.2, -0.54, -1.16, -1.16, -0.0, 3.13, 3.58, 2.17, 1.34, 3.53, 11.08, 13.84, 12.39, 10.86, 8.9, 7.68, 6.9, 4.0, 1.94, 3.49, 5.04, 4.42, 2.96, 2.44, 0.0, -1.79, -2.63, -2.17, -1.2, 0.0, 0.99, 1.61, 1.8, 2.44, 2.44, 5.35, 5.35, 5.35, 5.35, 5.35, 5.59, 5.59, 5.59, 5.93, 5.93, 6.23, 6.23, 6.79, 7.35, 7.72, 7.9, 8.27, 8.82, 8.55, 8.55, 9.1, 9.1, 9.1, 9.1, 9.48, 10.02, 10.16, 9.88, 10.55, 10.71, 12.33, 12.83, 12.83, 12.83, 13.32, 13.32, 13.32, 13.81, 13.99, 13.51, 12.83, 11.6, 10.02, 8.29, 7.73, 8.65, 10.13, 10.68, 9.88, 8.43, 6.15, 4.11, 3.79, 3.79, 3.43, -0.0, -2.79, -5.08, -6.3, -6.68, -3.97, -2.91, -1.7, -1.2, -1.4, -2.07, -2.53, -0.63, 2.24, 3.58, 2.24, 0.0, 0.0, 7.15, 16.09, 16.37, 10.87, 5.94, 6.32, 8.82, 6.9, 2.84, 2.23, 4.47, 5.1, 5.1, 5.37, 4.0, 0.4, -1.34, -1.79, -1.34, 0.45, 0.95, 1.9, 1.61, 2.23, 2.23, 5.35, 5.35, 5.35, 5.35, 5.59, 5.59, 5.59, 5.59, 5.93, 5.93, 6.51, 6.23, 6.79, 6.79, 7.72, 7.9, 8.27, 8.43, 8.82, 8.82, 8.82, 9.35, 9.35, 9.1, 9.1, 9.63, 9.63, 9.63, 9.88, 10.87, 11.6, 12.28, 12.62, 13.02, 13.02, 13.32, 13.32, 13.32, 13.74, 13.51, 12.91, 11.92, 10.16, 8.65, 8.08, 9.21, 10.16, 11.12, 10.0, 8.3, 5.6, 4.0, 3.48, 3.79, 4.07, 3.72, 1.86, -3.07, -5.09, -5.78, -5.78, -2.12, -1.79, -1.26, -1.84, -3.72, -2.79, -2.5, -0.89, 0.89, 0.6, -0.4, 0.0, 3.78, 14.87, 19.16, 9.4, 1.16, 1.61, 5.2, 7.33, 4.88, 4.02, 3.98, 6.6, 6.7, 7.07, 6.56, 3.82, 2.6, 0.63, -0.6, 0.45, 0.63, 1.9, 1.88, 1.84, 1.84, 5.35, 5.35, 5.35, 5.59, 5.59, 5.59, 5.59, 5.59, 5.93, 5.93, 6.51, 6.51, 6.79, 6.79, 7.35, 7.9, 7.9, 8.27, 8.43, 8.82, 8.82, 8.96, 8.96, 9.35, 9.35, 9.63, 9.63, 10.02, 10.55, 10.83, 11.36, 11.75, 12.11, 12.11, 12.62, 12.83, 12.83, 13.32, 13.32, 13.51, 13.51, 12.33, 10.91, 9.1, 8.08, 8.93, 10.0, 11.33, 10.66, 9.39, 7.01, 5.31, 4.17, 3.73, 4.07, 3.73, 3.35, 2.12, -2.4, -3.87, -2.68, -1.79, -1.58, -2.23, -1.88, -3.16, -3.48, -3.45, -2.6, -1.2, -0.0, -0.0, 2.24, 6.08, 12.64, 17.62, 13.41, 3.97, 2.63, 4.47, 7.57, 7.12, 7.12, 6.67, 7.12, 8.77, 8.48, 8.48, 5.32, 4.92, 3.39, 0.99, -0.0, 0.89, 1.86, 2.21, 2.23, 2.23, 5.35, 5.35, 5.35, 5.59, 5.59, 5.59, 5.59, 5.59, 5.93, 5.93, 6.15, 6.51, 6.7, 6.79, 6.79, 7.72, 7.9, 8.27, 8.43, 8.82, 8.82, 8.82, 8.96, 8.96, 9.35, 9.35, 9.88, 10.02, 10.55, 11.08, 11.47, 11.08, 11.2, 11.82, 11.92, 12.33, 12.41, 12.83, 13.32, 13.74, 13.51, 13.02, 10.91, 9.35, 8.0, 8.55, 9.48, 10.71, 10.91, 9.7, 7.81, 7.01, 6.0, 4.55, 3.73, 3.48, 3.43, 3.07, 1.7, -1.26, -2.79, -1.9, -2.53, -2.23, -2.84, -4.4, -3.07, -3.07, -2.4, -1.86, -0.57, 0.8, 3.95, 10.16, 12.37, 13.21, 14.11, 13.23, 12.56, 11.98, 10.7, 8.97, 8.06, 7.63, 8.38, 10.22, 10.66, 7.57, 5.81, 5.32, 4.3, 2.5, 0.95, 0.89, 1.7, 2.4, 2.53, 2.53, 5.35, 5.35, 5.59, 5.59, 5.59, 5.59, 5.59, 5.59, 5.93, 5.93, 6.15, 6.51, 6.7, 7.07, 7.07, 7.35, 7.9, 7.9, 8.43, 8.43, 8.82, 8.82, 8.82, 8.96, 8.96, 9.35, 9.88, 10.02, 10.55, 11.08, 11.08, 11.31, 11.31, 11.31, 11.62, 12.11, 12.53, 12.83, 13.32, 13.32, 13.74, 13.32, 11.41, 9.2, 8.15, 8.15, 9.2, 10.83, 10.91, 9.92, 8.51, 7.6, 7.08, 6.28, 4.55, 3.16, 2.84, 2.79, 2.4, -0.0, -1.24, -2.84, -3.35, -1.9, -1.7, -3.39, -2.8, -2.86, -2.5, -1.86, -0.8, -0.0, 3.22, 10.05, 11.62, 9.81, 9.81, 12.14, 15.78, 17.43, 15.58, 10.18, 5.31, 4.27, 4.77, 6.22, 7.12, 6.26, 5.81, 5.78, 4.77, 3.6, 1.86, 1.2, 1.34, 1.7, 3.07, 3.07, 5.59, 5.59, 5.59, 5.59, 5.59, 5.59, 5.59, 5.59, 5.93, 5.93, 6.15, 6.51, 6.7, 7.07, 7.07, 7.35, 7.9, 7.9, 8.27, 8.43, 8.82, 8.82, 8.82, 8.82, 8.96, 9.35, 9.35, 9.88, 10.16, 10.68, 11.08, 11.31, 10.91, 10.91, 10.91, 11.62, 12.11, 12.6, 12.83, 13.32, 13.32, 13.32, 11.41, 8.55, 6.8, 7.48, 9.01, 10.42, 10.91, 10.21, 9.2, 8.15, 8.15, 7.23, 5.49, 4.0, 2.79, 2.79, 2.0, 0.89, -0.0, -1.61, -2.98, -1.58, -1.26, -2.4, -1.9, -2.15, -1.88, -1.24, -0.6, -0.0, 1.6, 9.8, 13.32, 10.7, 6.79, 10.02, 15.34, 18.1, 16.3, 10.52, 4.11, 3.07, 3.32, 4.43, 5.36, 5.81, 5.78, 5.77, 5.2, 4.73, 3.82, 2.17, 1.34, 1.7, 2.6, 2.4, 5.86, 5.86, 5.86, 5.86, 5.86, 5.59, 5.59, 5.59, 5.93, 6.15, 6.15, 6.51, 6.51, 7.07, 7.07, 7.61, 7.35, 7.9, 7.9, 8.43, 8.43, 8.82, 8.82, 8.82, 8.82, 8.96, 9.35, 9.88, 10.4, 10.55, 10.68, 11.31, 10.91, 10.91, 10.91, 11.12, 11.62, 12.11, 12.83, 12.83, 13.32, 13.32, 11.41, 8.0, 6.79, 8.0, 9.42, 10.62, 11.21, 10.62, 9.35, 8.18, 8.0, 7.64, 6.79, 4.94, 3.43, 2.79, 2.91, 2.12, 0.89, -0.57, -0.6, -1.24, -1.26, -1.2, -2.2, -1.4, -1.2, -0.0, -0.0, -0.6, 0.8, 7.28, 15.01, 12.49, 5.44, 7.68, 13.05, 16.47, 14.35, 10.65, 6.67, 3.98, 2.68, 3.13, 4.47, 4.88, 5.32, 5.64, 5.2, 5.2, 4.77, 3.53, 2.68, 2.17, 2.4, 2.6, 5.86, 5.86, 5.86, 5.86, 5.86, 5.86, 5.86, 5.59, 5.93, 6.15, 6.15, 6.15, 6.51, 6.7, 7.07, 7.23, 7.61, 7.35, 7.9, 8.27, 8.43, 8.43, 8.82, 8.82, 8.82, 8.96, 9.35, 9.88, 10.27, 10.8, 10.91, 10.91, 10.91, 10.91, 10.91, 10.91, 11.41, 11.82, 12.33, 12.83, 12.83, 13.02, 11.62, 8.15, 6.94, 9.21, 10.4, 11.08, 11.08, 10.68, 9.48, 8.08, 8.08, 7.73, 6.87, 5.93, 4.65, 4.11, 3.87, 3.07, 1.79, -0.0, -0.71, -0.8, -1.2, -2.23, -1.9, -1.9, -0.54, -0.0, -0.0, -0.0, 0.45, 4.02, 11.64, 13.75, 11.66, 8.82, 10.23, 11.6, 10.18, 7.94, 6.71, 4.92, 3.98, 3.98, 4.43, 5.32, 5.32, 6.11, 5.32, 5.32, 5.32, 5.77, 3.58, 2.6, 2.4, 2.4, 5.86, 5.86, 5.86, 5.86, 5.86, 5.86, 5.86, 5.86, 5.93, 6.15, 6.15, 6.15, 6.51, 6.7, 7.07, 7.23, 7.61, 7.35, 7.9, 7.9, 8.43, 8.43, 8.43, 8.82, 8.82, 8.82, 8.96, 9.35, 9.88, 10.4, 10.8, 10.91, 10.91, 10.91, 10.91, 10.91, 11.31, 11.41, 11.92, 12.33, 12.6, 12.6, 11.21, 9.07, 7.44, 9.3, 10.68, 10.41, 10.41, 10.41, 9.21, 8.08, 7.51, 7.17, 6.87, 6.23, 5.86, 4.9, 5.09, 4.34, 3.13, 1.34, -0.0, -1.2, -1.4, -1.13, -1.24, -1.13, -0.71, -0.0, -0.0, -0.0, 0.45, 1.79, 3.51, 11.34, 15.19, 15.34, 11.18, 5.34, 2.79, 2.91, 4.02, 5.36, 5.78, 5.33, 5.33, 6.22, 7.12, 7.12, 6.66, 6.22, 6.22, 7.15, 5.81, 3.58, 2.4, 2.4, 5.86, 5.86, 5.86, 5.86, 5.86, 5.86, 5.86, 5.86, 6.41, 6.15, 6.15, 6.15, 6.51, 6.7, 7.07, 7.07, 7.61, 7.61, 7.35, 7.9, 8.27, 8.43, 8.43, 8.43, 8.82, 8.82, 8.96, 9.35, 9.88, 10.4, 10.8, 10.91, 10.91, 10.91, 10.8, 10.91, 10.91, 11.41, 11.82, 12.33, 12.33, 12.53, 11.12, 9.2, 8.55, 9.76, 10.68, 10.13, 9.76, 9.76, 8.65, 7.51, 6.87, 6.52, 6.23, 6.23, 6.03, 6.1, 5.81, 5.24, 3.98, 2.17, 0.89, -0.0, -1.2, -1.4, -0.0, -1.13, -0.0, -0.0, -0.57, -0.63, 0.0, 0.63, 2.12, 4.41, 12.96, 16.83, 15.34, 8.67, 3.82, 3.87, 5.78, 8.02, 7.15, 6.71, 5.81, 6.71, 7.6, 8.05, 7.6, 7.6, 7.6, 8.05, 5.81, 3.53, 3.53, 3.53, 5.86, 5.86, 5.86, 5.86, 5.86, 5.86, 5.86, 6.41, 6.41, 6.41, 6.15, 6.15, 6.51, 6.7, 7.07, 7.07, 7.61, 7.61, 7.61, 7.9, 7.9, 8.27, 8.43, 8.43, 8.43, 8.82, 8.82, 9.35, 9.48, 9.88, 10.4, 10.55, 10.68, 10.91, 10.8, 10.8, 10.91, 11.31, 11.82, 11.92, 12.33, 12.53, 11.12, 9.2, 8.68, 9.35, 10.4, 10.21, 9.71, 8.96, 8.43, 7.09, 6.57, 5.88, 6.15, 6.15, 6.41, 6.28, 6.1, 5.99, 4.77, 3.39, 1.7, 0.0, -0.0, -0.0, -0.0, -0.0, -0.0, -0.53, -1.2, -1.26, 0.45, 1.2, 2.15, 3.72, 8.63, 13.41, 15.78, 14.83, 13.14, 13.23, 13.86, 12.97, 10.28, 6.23, 4.77, 5.02, 6.85, 7.76, 7.48, 7.45, 7.48, 8.36, 7.92, 5.64, 5.64, 5.64, 5.86, 5.86, 5.86, 5.86, 5.86, 5.86, 5.86, 6.41, 6.41, 6.41, 6.41, 6.15, 6.51, 6.7, 7.07, 7.07, 7.23, 7.61, 7.61, 7.9, 7.9, 8.27, 8.43, 8.43, 8.43, 8.82, 8.82, 8.96, 9.35, 9.88, 10.16, 10.55, 10.55, 10.68, 10.55, 10.8, 10.8, 10.91, 11.41, 11.82, 12.33, 12.33, 11.62, 9.71, 8.28, 8.68, 9.51, 10.0, 10.0, 9.92, 9.01, 7.61, 6.51, 5.93, 6.15, 6.7, 6.41, 6.41, 6.51, 6.3, 5.31, 4.11, 2.91, 1.34, -0.0, -0.0, -0.0, -0.0, -0.65, -1.88, -2.21, -1.86, -0.89, 0.45, 1.86, 2.68, 4.3, 9.39, 12.62, 13.04, 13.8, 15.55, 17.19, 16.25, 12.79, 7.15, 3.98, 3.88, 5.05, 6.13, 8.91, 6.36, 7.28, 7.71, 7.71, 6.79, 6.79, 6.79, 5.86, 5.86, 5.86, 5.86, 5.86, 5.86, 6.03, 6.41, 6.41, 6.41, 6.41, 6.15, 6.51, 6.7, 6.7, 7.07, 7.23, 7.61, 7.61, 7.61, 7.9, 7.9, 8.27, 8.43, 8.43, 8.43, 8.82, 8.96, 9.35, 9.63, 10.02, 10.16, 10.55, 10.55, 10.55, 10.55, 10.16, 10.8, 11.31, 11.41, 11.82, 11.92, 11.41, 10.21, 8.68, 8.51, 9.01, 9.51, 9.92, 9.92, 9.01, 8.0, 6.56, 5.93, 5.88, 6.7, 6.51, 6.41, 6.28, 6.51, 5.6, 4.9, 3.6, 2.6, 1.6, -0.0, -0.0, -0.0, -0.57, -1.88, -2.15, -1.86, -1.7, -0.89, 0.0, 0.89, 2.68, 5.16, 8.55, 7.27, 9.4, 14.76, 17.9, 16.25, 13.4, 10.05, 7.15, 5.2, 5.46, 7.76, 7.95, 5.05, 5.6, 6.4, 6.54, 5.86, 5.86, 5.86, 5.86, 5.86, 5.86, 5.86, 5.86, 5.86, 6.03, 6.41, 6.41, 6.41, 6.41, 6.15, 6.15, 6.7, 6.7, 7.07, 7.23, 7.61, 7.61, 7.61, 8.15, 7.9, 8.27, 8.43, 8.43, 8.43, 8.82, 8.82, 9.35, 9.1, 9.63, 10.16, 10.55, 10.55, 10.55, 10.55, 10.16, 10.55, 10.68, 11.08, 11.82, 11.82, 11.41, 10.62, 9.2, 8.68, 8.91, 9.42, 9.42, 9.42, 9.01, 8.22, 6.8, 6.28, 6.51, 6.51, 6.51, 6.41, 6.56, 6.8, 6.51, 5.6, 4.6, 3.53, 2.6, 0.95, -0.0, -0.0, -0.0, -0.0, -1.2, -1.7, -2.12, -1.7, -1.2, -0.0, 1.24, 3.16, 4.56, 3.6, 6.88, 13.59, 18.16, 16.65, 14.38, 12.92, 11.15, 8.84, 6.07, 4.12, 4.46, 4.09, 4.09, 3.72, 3.72, 3.45, 3.45, 3.45, 5.86, 5.86, 5.86, 5.86, 5.86, 5.86, 6.03, 6.41, 6.41, 6.41, 6.41, 6.15, 6.15, 6.7, 6.7, 7.07, 7.23, 7.61, 7.61, 7.61, 7.61, 7.9, 7.9, 8.27, 8.43, 8.43, 8.82, 8.82, 9.1, 9.1, 9.63, 10.02, 10.16, 10.55, 10.55, 10.55, 10.16, 10.16, 10.55, 10.68, 11.31, 11.41, 11.41, 10.62, 9.6, 8.68, 8.68, 9.42, 9.42, 9.01, 8.72, 7.31, 6.51, 6.1, 6.67, 6.41, 6.15, 6.15, 6.56, 6.8, 6.8, 6.0, 4.6, 3.53, 2.68, 1.58, 1.2, -0.0, -0.0, -0.0, -0.0, -0.63, -1.26, -1.24, -0.71, -0.0, 0.61, 1.23, 2.26, 3.6, 5.69, 11.04, 15.09, 16.04, 16.79, 15.76, 12.44, 8.02, 3.72, 2.84, 2.51, 2.23, 1.9, 0.6, 0.0, -0.57, -0.57, -0.57, 5.86, 5.86, 5.86, 5.86, 5.86, 5.86, 6.03, 6.41, 6.41, 6.41, 6.41, 6.15, 6.15, 6.51, 6.7, 7.07, 7.07, 7.23, 7.61, 7.61, 7.61, 7.9, 7.9, 8.27, 8.43, 8.43, 8.82, 8.82, 8.55, 9.1, 9.48, 9.63, 10.02, 10.55, 10.55, 10.55, 10.16, 10.16, 10.16, 10.55, 10.68, 11.31, 11.31, 10.4, 9.71, 9.2, 8.8, 9.2, 9.01, 8.91, 8.22, 7.01, 6.3, 6.3, 6.72, 6.51, 6.1, 6.28, 6.03, 6.56, 6.8, 6.1, 4.8, 3.53, 2.24, 0.63, 0.6, 0.8, 0.99, 1.24, 1.26, 0.89, -0.63, -0.99, -0.71, -0.0, -0.0, -0.0, 0.7, 2.66, 5.06, 7.69, 9.9, 14.13, 17.07, 17.17, 8.05, 4.3, 3.32, 2.91, 2.21, 0.54, -1.2, -2.24, -2.68, -3.07, -3.07, -3.07, 5.86, 5.86, 5.86, 5.86, 5.86, 5.86, 6.03, 6.41, 6.41, 6.41, 6.41, 6.15, 6.15, 6.51, 6.7, 6.7, 7.07, 7.23, 7.61, 7.61, 7.61, 7.9, 7.9, 8.27, 8.27, 8.43, 8.82, 8.55, 8.55, 9.1, 9.1, 9.48, 10.02, 10.02, 10.55, 10.16, 10.16, 10.16, 10.16, 10.16, 10.55, 10.91, 10.91, 10.4, 9.71, 9.2, 9.2, 9.2, 8.8, 8.51, 7.81, 7.01, 6.1, 6.3, 6.3, 6.3, 6.04, 5.88, 6.1, 6.28, 6.28, 5.6, 4.4, 3.09, 1.79, 0.89, 0.63, 0.6, 1.24, 1.49, 1.58, 1.7, 1.2, -0.45, -0.6, -0.0, -0.0, -0.0, -0.0, 2.0, 3.78, 5.09, 6.39, 11.34, 17.0, 15.13, 9.83, 4.44, 3.07, 3.13, 3.53, 1.58, 0.0, -1.79, -2.24, -2.68, -2.68, -2.68, 5.86, 5.86, 5.86, 5.86, 5.86, 5.86, 6.03, 6.41, 6.41, 6.41, 6.41, 6.15, 6.15, 6.51, 6.7, 6.7, 7.07, 7.23, 7.61, 7.61, 7.61, 7.72, 7.9, 8.27, 8.27, 8.43, 8.82, 8.55, 8.55, 8.93, 9.1, 9.48, 9.63, 10.02, 10.02, 10.16, 10.02, 10.02, 10.02, 10.16, 10.16, 10.8, 10.91, 10.4, 9.48, 9.2, 9.2, 9.2, 8.68, 8.51, 7.71, 6.8, 6.51, 6.3, 6.3, 6.47, 6.04, 6.14, 5.99, 5.88, 6.0, 5.08, 3.88, 2.63, 2.24, 1.79, 0.45, 0.45, -0.0, 0.8, 0.71, 1.26, 1.2, 1.34, -0.0, -0.0, -0.0, -0.0, -0.0, 1.61, 3.16, 3.78, 4.73, 10.02, 18.33, 16.08, 9.81, 2.68, 0.0, 1.2, 4.02, 3.82, 0.54, -0.6, -0.63, -1.2, -1.2, -1.2, 5.86, 5.86, 5.86, 5.86, 5.86, 5.86, 6.03, 6.41, 6.41, 6.41, 6.41, 6.15, 6.15, 6.15, 6.51, 6.7, 7.07, 7.07, 7.61, 7.61, 7.61, 7.72, 7.9, 8.27, 8.27, 8.27, 8.18, 8.55, 8.55, 8.55, 8.93, 9.1, 9.48, 9.63, 10.02, 10.02, 10.02, 10.02, 10.02, 10.02, 10.16, 10.4, 10.4, 10.4, 9.88, 9.2, 9.2, 9.2, 8.68, 8.4, 7.48, 6.8, 6.51, 6.51, 6.72, 6.47, 6.47, 6.16, 6.16, 6.04, 5.81, 4.69, 3.7, 3.07, 2.6, 2.12, 0.63, 0.0, 0.0, -0.0, -0.0, -0.0, 1.2, 1.86, 0.63, -0.0, -0.0, -0.0, 1.2, 1.9, 2.5, 3.35, 4.93, 17.42, 19.17, 16.86, 8.47, 0.63, -1.79, 0.0, 3.98, 4.77, 1.88, 0.0, 0.0, 0.0, 0.0, 0.0, 5.86, 5.86, 5.86, 5.86, 5.86, 5.86, 6.03, 6.41, 6.41, 6.41, 6.41, 6.41, 6.41, 6.15, 6.51, 6.7, 6.7, 7.07, 7.23, 7.61, 7.61, 7.72, 7.9, 8.27, 8.27, 8.27, 8.0, 8.55, 8.55, 8.55, 8.93, 9.1, 9.48, 9.48, 10.02, 10.02, 10.02, 10.02, 9.63, 9.63, 10.02, 10.16, 10.4, 10.4, 9.48, 9.2, 9.2, 9.2, 8.68, 8.0, 7.48, 6.8, 6.28, 6.51, 6.51, 6.3, 6.47, 6.47, 6.6, 6.16, 6.04, 5.31, 4.11, 3.39, 2.91, 2.4, 1.86, 0.95, 0.45, -0.45, 0.0, 0.0, 0.45, 1.7, 1.26, -0.0, -0.0, 0.6, 2.12, 2.6, 2.4, 3.32, 11.15, 16.99, 18.78, 16.54, 6.26, 0.45, -1.2, 0.57, 3.6, 5.02, 1.88, -0.54, -0.54, -0.57, -0.57, -0.57, 5.86, 5.86, 5.86, 5.86, 5.86, 5.86, 6.03, 6.41, 6.41, 6.41, 6.41, 6.41, 6.41, 6.15, 6.51, 6.7, 6.7, 7.07, 7.23, 7.61, 7.35, 7.72, 7.9, 8.27, 8.27, 8.27, 8.0, 8.0, 8.55, 8.55, 8.55, 8.93, 9.1, 9.48, 9.48, 10.02, 10.02, 10.02, 9.63, 9.63, 9.63, 9.88, 10.27, 9.88, 9.48, 9.2, 9.2, 9.2, 8.68, 8.0, 7.48, 6.95, 6.8, 6.28, 6.51, 6.3, 6.3, 6.47, 6.47, 6.47, 6.47, 5.4, 4.6, 3.7, 3.07, 2.68, 2.4, 1.26, 0.0, -0.89, 0.0, 0.45, 0.45, 0.89, 0.63, -0.0, -0.45, 0.0, 1.86, 2.6, 2.24, 2.68, 8.94, 15.12, 17.73, 15.12, 3.98, -0.89, -1.2, 0.57, 3.14, 3.72, 0.57, -1.61, -1.2, -1.2, -1.2, -1.2, 5.86, 5.86, 5.86, 5.86, 5.86, 5.86, 6.03, 6.41, 6.41, 6.41, 6.41, 6.41, 6.41, 6.41, 6.51, 6.7, 6.7, 7.07, 7.23, 7.61, 7.35, 7.72, 7.72, 7.9, 8.27, 8.27, 8.0, 8.0, 8.0, 8.55, 8.55, 8.55, 8.93, 9.1, 9.48, 9.48, 9.63, 9.63, 9.63, 9.63, 9.63, 9.88, 9.88, 9.88, 9.48, 9.2, 9.2, 9.2, 8.68, 8.0, 7.48, 6.95, 6.95, 6.67, 6.28, 6.1, 6.3, 6.3, 6.3, 6.3, 6.3, 5.81, 5.31, 4.4, 3.72, 3.14, 3.07, 2.23, 0.0, -0.63, -0.63, 0.0, 0.0, 0.45, -0.0, -0.0, 0.0, 0.0, 1.2, 1.61, 1.58, 3.82, 5.77, 12.52, 15.63, 14.67, 4.88, -1.34, -1.79, 0.4, 1.61, 0.54, -0.95, -1.58, -1.88, -1.88, -1.88, -1.88, 5.86, 5.86, 5.86, 5.86, 5.86, 5.86, 5.86, 6.41, 6.41, 6.41, 6.41, 6.41, 6.41, 6.15, 6.51, 6.51, 6.7, 7.07, 7.07, 7.61, 7.35, 7.35, 7.72, 7.9, 8.27, 8.27, 8.27, 8.0, 8.0, 8.0, 8.55, 8.55, 8.55, 8.93, 9.1, 9.48, 9.48, 9.63, 9.48, 9.48, 9.48, 9.88, 9.88, 9.48, 9.35, 9.2, 9.2, 9.2, 8.68, 7.76, 7.48, 7.07, 6.7, 6.95, 6.28, 6.1, 6.3, 6.3, 6.3, 6.72, 6.1, 5.6, 5.47, 5.08, 4.0, 3.72, 3.07, 2.68, 1.26, 0.0, -0.63, 0.0, 0.0, 0.0, -0.0, 0.45, 0.0, 0.0, 0.53, 1.16, 1.84, 2.84, 4.27, 9.83, 14.28, 14.75, 8.94, 1.79, -1.79, -0.89, -0.6, -1.58, -1.49, -1.26, -1.9, -2.21, -2.21, -2.21, 5.86, 5.86, 5.86, 5.86, 5.86, 5.86, 5.86, 6.41, 6.41, 6.41, 6.41, 6.41, 6.41, 6.15, 6.15, 6.51, 6.7, 7.07, 7.07, 7.61, 7.35, 7.35, 7.72, 7.9, 7.9, 8.27, 8.27, 8.0, 8.0, 8.0, 8.0, 8.55, 8.55, 8.93, 8.93, 9.48, 9.48, 9.48, 9.48, 9.1, 9.1, 9.35, 9.35, 9.35, 9.35, 8.96, 9.2, 9.2, 8.68, 8.15, 7.23, 7.15, 7.07, 6.7, 6.41, 5.75, 6.0, 6.1, 6.1, 6.51, 6.28, 5.75, 5.37, 5.08, 4.55, 4.0, 3.35, 3.07, 2.15, 0.0, 0.0, 0.0, 0.0, -0.45, -0.45, -0.45, 0.0, 0.0, 0.0, 0.59, 0.59, 1.8, 3.43, 8.24, 12.87, 14.67, 12.49, 4.88, 0.0, -2.24, -2.68, -2.91, -1.9, -1.26, -1.24, -1.9, -1.9, -1.9, 5.86, 5.86, 5.86, 5.86, 5.86, 5.86, 5.86, 6.23, 6.41, 6.41, 6.41, 6.41, 6.41, 6.15, 6.15, 6.51, 6.7, 7.07, 7.07, 7.23, 7.35, 7.35, 7.72, 7.72, 7.9, 7.9, 8.27, 8.27, 8.0, 8.0, 8.0, 8.37, 8.55, 8.55, 8.93, 9.1, 9.48, 9.48, 9.48, 9.1, 9.1, 9.1, 9.35, 9.35, 8.96, 8.96, 9.2, 9.2, 8.68, 8.15, 7.23, 7.15, 7.15, 7.07, 6.41, 6.13, 6.0, 6.0, 6.1, 6.28, 6.03, 5.86, 5.75, 5.21, 4.65, 4.0, 3.43, 3.35, 2.79, 1.9, 0.0, 0.0, -0.6, 0.0, 0.45, -0.32, -0.6, 0.0, -0.61, 0.0, 0.0, 1.27, 3.43, 7.69, 12.65, 14.87, 13.67, 8.84, 3.53, 0.0, -2.24, -2.63, -2.15, -1.58, -0.99, -0.57, -0.57, -0.57, 5.86, 5.86, 5.86, 5.86, 5.86, 5.86, 5.86, 5.86, 6.41, 6.41, 6.41, 6.41, 6.41, 6.41, 6.15, 6.51, 6.7, 6.7, 7.07, 7.23, 7.61, 7.35, 7.35, 7.72, 7.9, 7.9, 8.27, 8.27, 8.0, 8.0, 8.0, 8.0, 8.37, 8.55, 8.55, 8.93, 9.1, 9.1, 9.1, 9.1, 9.1, 9.1, 8.96, 8.96, 8.96, 8.96, 8.96, 9.07, 8.68, 8.15, 7.23, 7.15, 7.15, 6.79, 6.51, 5.86, 5.75, 5.75, 5.89, 6.28, 6.41, 6.03, 5.75, 5.21, 4.65, 4.07, 3.73, 3.43, 3.09, 2.21, 0.71, 0.0, -0.6, 0.89, 0.0, -0.45, -0.95, -1.2, -1.61, -1.13, 0.0, 1.23, 3.64, 7.33, 11.75, 14.7, 14.11, 11.08, 6.67, 3.98, 0.63, -1.7, -2.0, -1.58, -0.57, 0.0, 0.0, 0.0, 5.86, 5.86, 5.86, 5.86, 5.86, 5.86, 5.86, 5.86, 6.23, 6.15, 6.15, 6.15, 6.41, 6.41, 6.15, 6.51, 6.7, 6.7, 7.07, 7.07, 7.61, 7.35, 7.35, 7.72, 7.9, 7.9, 7.9, 8.27, 8.0, 8.0, 8.0, 8.0, 8.37, 8.55, 8.55, 8.93, 8.93, 9.1, 9.1, 9.1, 9.1, 8.55, 8.82, 8.82, 8.82, 8.82, 8.82, 9.07, 8.68, 8.15, 7.07, 7.15, 6.87, 6.79, 6.23, 6.15, 5.86, 5.86, 6.13, 6.03, 6.41, 6.28, 6.28, 5.75, 4.84, 4.29, 3.73, 4.0, 3.43, 3.14, 1.88, 0.0, 0.0, 0.45, 0.45, -0.63, -1.26, -2.21, -1.84, -1.13, 0.0, 1.35, 3.55, 7.02, 10.48, 13.49, 13.67, 12.05, 9.83, 7.15, 4.47, 2.68, 1.34, 0.63, 0.42, 1.24, 1.24, 1.24, 5.86, 5.86, 5.86, 5.86, 5.86, 5.86, 5.86, 5.86, 6.23, 6.15, 6.15, 6.15, 6.41, 6.41, 6.15, 6.51, 6.7, 6.7, 7.07, 7.07, 7.61, 7.35, 7.35, 7.72, 7.9, 7.9, 7.9, 8.27, 8.0, 8.0, 8.0, 8.0, 8.37, 8.55, 8.55, 8.93, 8.93, 9.1, 9.1, 9.1, 9.1, 8.55, 8.82, 8.82, 8.82, 8.82, 8.82, 9.07, 8.68, 8.15, 7.07, 7.15, 6.87, 6.79, 6.23, 6.15, 5.86, 5.86, 6.13, 6.03, 6.41, 6.28, 6.28, 5.75, 4.84, 4.29, 3.73, 4.0, 3.43, 3.14, 1.88, 0.0, 0.0, 0.45, 0.45, -0.63, -2.15, -2.21, -1.84, -1.13, 0.0, 1.35, 3.55, 6.68, 9.3, 12.14, 13.05, 12.42, 10.73, 9.39, 7.56, 5.78, 4.87, 4.02, 3.58, 3.07, 3.07, 3.07]}, {"header": {"dx": 0.06612293990616946, "dy": 0.0552356325346848, "nx": 98, "ny": 59, "la1": 35.046912555036876, "la2": 31.78801023549047, "lo1": -121.43107172385933, "lo2": -114.95102361305473, "refTime": "2026040910", "parameterCategory": 1, "parameterNumber": 3}, "data": [-4.12, -4.12, -3.84, -3.84, -3.84, -3.84, -4.12, -3.78, -3.49, -2.86, -2.23, -1.9, -0.8, 0.0, 0.0, 0.0, 0.0, -1.34, -2.12, -2.12, -2.12, -1.34, -0.63, -0.6, -0.57, -0.71, -0.54, -0.54, 0.0, 0.0, 0.65, 1.4, 1.4, 1.33, 1.49, 1.41, 0.76, 0.0, 0.0, 0.0, 0.0, 0.0, -0.96, -2.09, -4.36, -6.1, -7.82, -8.51, -9.31, -7.48, -1.47, 3.07, 4.46, 4.11, 4.43, 5.43, 5.69, 5.59, 4.71, 4.71, 4.37, 3.91, 3.69, 3.9, 2.98, 3.72, 3.9, 3.91, 4.5, 4.58, 3.82, 2.97, 2.04, 1.33, 1.49, 3.11, 1.16, 0.0, -0.0, 1.24, 1.58, 0.6, -0.4, -1.26, -1.24, -0.99, -1.2, -1.34, -1.86, -2.51, -4.46, -5.86, -6.88, -6.79, -6.05, -5.28, -4.5, -3.8, -4.12, -4.12, -4.12, -4.12, -3.84, -4.12, -4.12, -3.78, -3.49, -3.48, -2.84, -2.53, -1.9, -0.8, -1.58, 0.0, -0.45, -1.34, -2.24, -3.07, -3.04, -2.6, -1.79, -0.95, -0.71, -0.65, -0.65, -0.71, 0.0, 0.0, 0.0, 0.57, 0.71, 1.2, 0.61, 0.66, 0.0, 0.0, -0.72, -0.7, -0.73, -1.98, -3.52, -6.2, -8.46, -10.8, -11.25, -10.98, -7.82, -2.2, 2.53, 4.09, 3.72, 3.78, 4.75, 5.43, 5.3, 5.21, 5.49, 4.6, 4.6, 4.6, 4.71, 4.56, 4.65, 4.65, 4.56, 3.91, 3.7, 4.68, 4.58, 3.95, 2.12, 1.41, 1.49, 2.2, 2.9, 0.0, -0.0, 1.24, 1.58, 0.6, -0.4, -1.26, -1.24, -0.99, -1.2, -1.34, -1.86, -2.51, -4.46, -5.86, -6.88, -6.79, -6.05, -5.28, -4.5, -3.8, -4.12, -4.12, -4.12, -4.12, -4.12, -4.12, -3.83, -4.11, -3.49, -3.48, -3.43, -3.14, -2.53, -1.9, -1.0, -1.26, -1.26, -1.2, -2.68, -3.13, -3.53, -3.51, -3.58, -2.68, -1.86, -1.2, 0.0, 0.0, 0.0, 0.0, -0.45, -0.89, -0.63, 0.0, 0.0, 0.0, 0.0, -0.74, -1.45, -2.35, -4.14, -6.71, -9.31, -10.98, -12.23, -11.83, -9.39, -5.41, -0.73, 2.07, 3.72, 3.11, 2.88, 3.72, 4.75, 5.43, 5.3, 5.21, 4.6, 4.6, 4.6, 4.6, 4.71, 4.83, 5.3, 5.59, 5.13, 5.28, 5.52, 5.3, 5.4, 4.58, 2.97, 1.45, 0.66, 0.76, 1.54, 0.0, 0.0, 0.8, 1.6, -0.0, -1.0, -1.84, -1.33, -0.65, -1.26, -1.34, -2.5, -4.36, -6.31, -7.08, -7.9, -7.9, -6.14, -3.79, -2.8, -2.9, -4.12, -4.12, -4.12, -4.12, -4.12, -4.12, -3.83, -4.11, -3.79, -3.48, -4.0, -3.72, -3.22, -2.6, -1.9, -1.9, -1.9, -2.21, -2.17, -3.13, -3.58, -3.58, -4.02, -4.43, -3.58, -2.54, -1.24, 0.0, 0.0, 0.0, -1.34, -2.63, -2.91, -2.24, -1.24, -0.87, -1.84, -2.09, -4.0, -6.05, -8.76, -11.06, -11.38, -10.04, -7.63, -4.6, -1.45, 0.7, 3.11, 2.9, 2.66, 2.35, 2.88, 4.11, 5.09, 5.37, 4.83, 4.71, 4.37, 4.0, 4.0, 3.8, 4.71, 5.3, 6.32, 6.24, 6.42, 6.17, 7.09, 7.4, 7.13, 5.38, 3.91, 2.17, 0.67, 0.0, -0.76, 0.0, 0.0, -0.0, -0.0, -0.0, -1.16, -1.27, -0.66, -0.53, -0.63, -1.7, -3.49, -6.88, -7.24, -6.79, -6.95, -4.11, -1.2, 0.0, -0.63, -1.45, -4.12, -4.12, -4.12, -4.12, -4.12, -4.12, -3.83, -4.11, -4.07, -3.73, -4.0, -3.88, -3.22, -3.35, -3.6, -3.2, -2.6, -2.98, -2.17, -3.13, -3.51, -3.13, -3.13, -3.51, -4.24, -3.47, -2.68, -1.58, -0.85, -0.61, -1.24, -3.13, -6.36, -7.45, -7.97, -7.37, -6.7, -7.27, -8.53, -10.18, -10.12, -8.76, -5.28, -2.26, 0.0, 0.71, 2.31, 2.23, 1.52, 0.77, 1.4, 2.2, 3.22, 4.43, 4.65, 4.56, 3.69, 3.91, 4.37, 3.7, 3.8, 3.91, 5.0, 6.01, 6.64, 6.42, 5.78, 6.14, 6.79, 7.63, 6.2, 5.35, 4.24, 3.19, 0.77, -0.63, -1.8, 0.0, 2.15, -0.4, -1.49, -1.24, -1.33, -1.41, -1.27, -1.9, -2.12, -3.14, -7.02, -7.82, -6.79, -5.94, -3.14, 0.0, 2.24, 1.0, 0.0, -1.52, -4.43, -4.12, -4.12, -4.12, -4.12, -4.12, -4.12, -4.11, -4.07, -3.73, -4.0, -3.88, -3.58, -3.58, -3.58, -4.0, -3.6, -4.0, -4.15, -4.92, -6.21, -6.07, -4.82, -3.47, -3.9, -4.82, -4.38, -3.58, -3.47, -2.53, -1.4, -1.86, -3.58, -8.05, -9.81, -9.58, -9.08, -8.94, -9.48, -9.62, -8.32, -5.69, -1.41, 0.0, 0.74, 0.75, 0.0, 0.0, 0.0, 0.0, 0.0, 1.6, 3.22, 3.72, 3.64, 3.2, 3.0, 3.11, 3.69, 3.7, 3.8, 3.55, 5.37, 6.01, 5.86, 5.28, 5.38, 5.49, 5.49, 5.41, 3.96, 3.78, 4.61, 3.91, 2.25, 0.0, -1.88, 0.0, 2.6, -0.0, -3.07, -3.07, -2.51, -2.48, -3.16, -3.98, -5.86, -7.31, -8.22, -7.59, -6.24, -3.72, -0.8, 1.6, 1.34, -0.59, -2.31, -2.97, -4.37, -4.11, -4.12, -4.12, -4.12, -4.12, -4.12, -4.11, -4.07, -4.37, -4.8, -4.4, -3.58, -2.84, -4.09, -3.83, -4.22, -5.2, -5.43, -5.44, -4.43, -5.36, -7.28, -8.63, -8.24, -7.31, -8.43, -8.49, -7.6, -5.36, -2.54, -0.95, -1.86, -3.74, -7.76, -9.15, -9.58, -9.77, -7.59, -6.06, -5.75, -5.4, -4.89, -5.44, -4.54, -3.76, -3.19, -2.25, -1.54, -1.09, 0.0, 1.41, 2.98, 2.98, 2.98, 2.4, 2.98, 2.98, 2.8, 3.09, 2.9, 3.64, 4.65, 4.46, 3.69, 3.91, 4.71, 3.47, 2.9, 2.28, 1.52, 1.52, 2.19, 2.33, 1.54, 1.57, 0.69, 1.61, 2.23, 0.0, -4.24, -5.64, -4.93, -4.93, -6.55, -8.91, -10.15, -9.3, -8.27, -6.01, -3.14, -1.2, 0.63, 0.6, 0.0, -1.8, -3.7, -4.71, -4.37, -4.11, -4.12, -4.12, -4.12, -4.43, -4.43, -4.71, -4.65, -4.55, -5.31, -5.57, -4.57, -3.58, -3.79, -3.49, -4.19, -4.81, -5.09, -3.16, -0.61, 0.0, -1.88, -5.36, -9.11, -9.16, -9.77, -9.77, -8.24, -6.88, -4.82, -3.13, -3.13, -6.0, -7.73, -8.91, -9.62, -9.08, -7.64, -6.52, -6.32, -8.79, -11.21, -11.77, -10.62, -8.75, -6.05, -4.8, -3.06, -1.0, 0.0, 1.33, 2.73, 3.22, 3.22, 3.22, 3.72, 3.64, 3.79, 2.9, 3.79, 3.11, 2.2, 2.35, 2.11, 2.73, 3.2, 1.45, 0.72, 0.71, 0.77, 0.74, 0.0, 0.0, 0.0, 1.41, 3.76, 3.88, 2.97, 0.77, -3.47, -7.6, -7.12, -7.15, -8.91, -9.89, -10.0, -8.68, -6.06, -1.86, -0.0, 1.2, 0.54, -0.0, -0.99, -2.2, -4.6, -4.28, -4.37, -4.11, -4.12, -4.12, -4.74, -4.74, -4.74, -4.74, -4.71, -5.21, -6.1, -6.94, -7.97, -8.33, -6.7, -5.82, -5.82, -5.82, -4.84, -2.84, 0.0, 0.0, 0.0, -1.49, -4.24, -7.15, -7.08, -7.4, -7.76, -8.24, -8.89, -10.28, -11.18, -10.52, -8.91, -7.89, -8.37, -9.33, -8.0, -8.34, -8.4, -8.4, -8.8, -6.99, -3.2, -2.91, -2.86, -2.41, 0.0, 1.84, 3.22, 2.84, 3.07, 3.72, 3.64, 4.65, 4.56, 4.46, 4.12, 3.8, 2.99, 3.09, 1.45, 1.35, 1.84, 2.73, 2.26, 1.49, 0.67, 0.72, 0.74, 0.69, 0.0, 0.0, 0.0, 0.78, 1.47, 2.25, 1.51, 1.42, 0.0, -6.23, -6.71, -7.12, -7.33, -7.56, -7.46, -5.72, -2.21, 0.89, 2.0, 1.58, -0.0, -0.89, -1.61, -2.8, -4.6, -4.37, -4.37, -4.11, -4.43, -4.43, -4.74, -4.45, -4.45, -5.01, -5.29, -5.49, -6.8, -8.0, -8.22, -10.34, -9.7, -9.06, -9.75, -9.75, -9.11, -8.24, -7.74, -6.8, -5.37, -4.22, -5.24, -5.73, -4.92, -6.0, -9.2, -10.04, -10.73, -12.52, -13.41, -12.07, -10.28, -6.88, -5.24, -6.07, -7.76, -5.6, -2.8, -2.4, -1.58, 0.63, 1.34, 0.89, 0.0, 0.45, 3.07, 4.43, 3.6, 3.49, 3.72, 4.36, 4.65, 5.3, 4.96, 4.6, 3.88, 3.21, 2.35, 2.23, 1.04, 1.35, 2.79, 2.98, 2.82, 2.75, 1.98, 1.41, 1.49, 0.68, 0.0, 0.0, 0.0, 0.0, -0.74, -1.54, -1.39, -0.68, 0.0, -1.41, -4.88, -4.43, -3.39, -3.07, -3.14, -2.23, 0.0, 1.26, 1.2, 0.45, -0.89, -2.17, -2.51, -3.69, -4.6, -4.22, -4.37, -4.37, -4.71, -4.43, -4.74, -4.45, -5.06, -5.06, -5.35, -5.59, -6.7, -7.9, -8.27, -9.2, -9.24, -10.75, -11.79, -12.51, -13.1, -13.67, -14.57, -14.4, -13.23, -11.09, -9.96, -7.52, -7.6, -9.16, -11.13, -12.02, -11.57, -11.06, -8.05, -7.89, -10.02, -9.83, -8.4, -7.64, -3.78, -1.24, 2.12, 1.7, 1.26, 2.12, 2.12, 1.7, 1.79, 2.68, 4.02, 3.97, 3.07, 2.51, 2.73, 3.9, 4.56, 4.71, 3.88, 2.97, 1.54, 0.75, 0.78, 0.77, 0.74, 2.4, 4.36, 4.46, 3.88, 3.88, 3.8, 3.06, 1.56, 0.7, 0.0, 0.0, 0.0, -0.68, -2.02, -3.88, -4.5, -4.55, -3.52, -1.38, -1.4, -2.63, -1.26, -0.54, -1.16, -0.61, 0.0, 0.53, 0.0, -0.57, -1.7, -2.49, -3.16, -4.6, -4.5, -3.9, -4.37, -4.37, -4.71, -4.43, -4.74, -4.75, -5.06, -5.37, -5.65, -5.65, -6.79, -7.9, -8.37, -8.08, -7.55, -7.73, -7.9, -9.2, -10.71, -12.3, -11.39, -10.66, -10.34, -11.21, -7.31, -4.98, -4.82, -4.92, -4.43, -5.73, -6.26, -4.43, -1.34, -1.2, -4.43, -6.26, -5.67, -3.07, -0.63, 1.7, 3.07, 2.17, 0.63, 0.6, 0.6, 0.63, 0.0, 0.89, 2.12, 2.0, 0.71, 0.53, 0.59, 1.41, 2.29, 2.18, 1.47, 0.78, -0.78, -1.54, -0.71, 0.0, 1.47, 2.51, 3.79, 4.71, 5.41, 5.3, 4.5, 3.07, 2.14, 1.36, 0.0, 0.0, -0.73, -2.31, -3.11, -4.5, -6.29, -6.44, -5.6, -2.28, -0.73, -1.2, -0.57, -0.53, -0.59, -0.59, 0.0, 0.0, 0.0, -1.0, -1.24, -2.91, -4.12, -5.38, -4.37, -1.8, -4.37, -4.37, -4.71, -4.43, -4.74, -4.75, -5.08, -5.08, -5.69, -5.98, -6.57, -7.44, -8.08, -8.38, -7.6, -6.35, -5.1, -5.08, -6.28, -7.51, -7.23, -6.04, -5.08, -2.61, -1.07, -0.53, 0.0, 0.0, 0.0, 0.0, -0.65, 0.0, 1.2, 0.65, 0.0, -0.89, -0.63, 1.2, 2.12, 1.79, 1.7, 0.0, -0.8, -1.49, -1.58, -2.12, -2.24, -2.24, -2.24, -1.86, -2.15, -2.5, -2.23, -2.07, -1.99, -2.26, -1.07, 0.0, -1.44, -1.55, 0.0, 0.61, 1.61, 1.88, 1.33, 1.41, 2.82, 4.5, 4.68, 3.76, 3.07, 2.95, 1.5, 0.0, -2.31, -3.73, -4.39, -4.5, -4.66, -4.28, -3.32, -2.8, -3.39, -3.91, -0.7, -0.66, -1.41, -1.27, 0.0, 0.0, 0.0, 0.0, -0.61, -2.53, -4.43, -5.13, -2.66, -0.61, -4.37, -4.37, -4.71, -4.43, -4.74, -4.75, -5.08, -5.38, -5.69, -6.01, -6.28, -7.21, -8.08, -8.45, -8.22, -6.98, -5.72, -4.45, -4.46, -5.09, -5.06, -4.12, -2.75, -1.14, 0.0, 0.0, 0.56, 0.58, 1.1, 1.66, 1.15, 0.0, 0.0, 0.0, 0.0, 1.79, 1.79, 2.24, 1.7, 0.89, 0.0, -0.63, -2.54, -3.47, -2.54, -2.68, -3.13, -4.02, -5.36, -5.81, -4.38, -5.94, -7.81, -8.4, -7.96, -6.9, -4.43, -1.07, -1.07, 0.0, 0.95, 0.89, 0.8, 0.0, -0.65, -0.61, 0.0, 0.69, 1.02, 2.17, 4.5, 5.99, 4.68, 1.47, -1.47, -2.23, -0.7, 0.0, -0.61, -0.61, -1.61, -3.79, -5.39, -5.4, -3.51, -2.99, -2.9, -1.13, 0.0, 0.59, 0.0, 0.0, -0.66, -2.0, -3.64, -3.11, -1.27, 0.0, -4.71, -4.71, -4.71, -4.43, -4.74, -5.06, -5.08, -5.1, -5.71, -5.71, -6.01, -6.92, -7.23, -7.86, -8.22, -7.61, -6.61, -5.7, -5.08, -5.08, -5.29, -4.54, -3.34, -2.26, -1.69, -1.13, -0.56, 0.0, 0.0, 0.0, 0.0, 0.0, -1.05, -1.08, 0.0, 1.79, 2.68, 1.79, 2.24, 0.89, 0.0, -1.2, -1.9, -0.89, 0.0, 0.0, -0.45, -2.24, -4.47, -4.47, -6.71, -7.31, -6.8, -4.57, -3.2, -3.74, -4.57, -4.02, -1.36, 0.57, 0.8, -0.0, 0.0, -1.26, -2.8, -3.2, -3.22, -3.22, -0.88, 0.79, 4.46, 5.86, 4.4, 1.52, 0.0, 1.9, 2.91, 2.5, 1.9, 0.71, -0.71, -2.53, -4.29, -3.51, -3.47, -5.28, -3.91, -0.59, 0.0, 0.0, 0.0, -0.61, -1.88, -2.11, -2.29, -1.27, -1.27, -1.27, -4.71, -4.71, -4.71, -4.43, -4.74, -5.06, -5.08, -5.1, -5.71, -6.01, -6.32, -6.32, -6.95, -7.27, -8.19, -7.6, -6.98, -6.33, -5.69, -5.04, -4.6, -4.57, -4.02, -3.44, -2.22, -1.72, -0.6, 0.0, 0.0, 0.0, 0.0, 0.0, -1.17, -1.07, 0.0, 0.89, 1.79, 1.86, 1.9, 0.0, 0.0, -0.54, 0.0, 0.95, 2.68, 2.4, 2.0, 0.0, 0.0, -1.34, -2.68, -2.4, -1.26, 0.0, 0.0, -0.63, -3.2, -3.48, -0.7, 0.6, 0.0, -0.0, 0.0, -0.89, -2.12, -3.95, -5.86, -4.15, -0.8, 1.4, 1.35, 0.67, 0.0, 0.0, 1.26, 4.02, 4.73, 4.09, 3.14, 2.53, 1.61, 0.0, -1.33, -2.2, -1.84, -1.26, -2.07, -0.61, 0.0, -0.61, -1.23, -2.66, -2.0, -1.35, -2.06, -1.94, -1.76, -1.76, -4.71, -4.71, -4.71, -4.43, -4.74, -5.06, -5.08, -5.1, -5.71, -5.72, -5.72, -6.34, -6.34, -6.95, -7.27, -7.3, -7.32, -6.97, -5.89, -5.23, -4.08, -3.39, -3.37, -2.37, -1.13, -0.58, 0.0, 0.0, 0.0, 0.0, -0.6, -0.58, -1.69, -2.13, -1.24, 0.0, 0.63, 0.0, 0.0, 0.0, -1.2, -1.9, -1.0, 0.0, 1.79, 1.9, 1.2, 1.58, 1.58, 1.58, 1.34, 1.34, 1.79, 1.79, 1.34, 0.0, -0.95, 0.0, 0.0, 0.0, 0.0, -0.0, 1.58, 1.26, 0.0, -2.15, -3.95, -4.41, -1.79, 0.0, -1.07, -3.93, -4.5, -2.48, 0.89, 4.47, 7.01, 6.7, 5.37, 4.11, 3.72, 2.11, 0.63, -0.57, -1.61, -0.89, -0.89, -0.6, -1.88, -2.8, -3.33, -2.66, -2.23, -2.66, -3.69, -2.8, -2.44, -2.44, -4.71, -4.71, -4.71, -4.43, -4.74, -5.06, -5.08, -5.1, -5.44, -5.72, -6.01, -6.34, -6.34, -6.34, -6.95, -6.97, -7.32, -6.97, -5.67, -4.08, -2.99, -2.96, -2.82, -1.72, 0.0, 0.0, -0.58, -0.6, -0.58, -1.16, -1.74, -2.26, -2.28, -2.93, -3.4, -1.9, -2.0, -2.6, -2.21, -1.9, -1.9, -2.23, -1.6, -0.45, -0.0, -0.0, -0.0, 1.2, 1.4, 1.4, 2.8, 2.4, 1.58, 1.26, 0.0, 0.0, 0.0, 1.26, 1.34, 0.0, 0.0, 0.95, 1.9, 3.72, 4.4, 1.7, -1.79, -5.29, -7.15, -5.95, -5.21, -5.28, -3.78, -1.86, 1.26, 3.98, 4.93, 6.32, 5.78, 4.37, 3.55, 2.12, 1.45, -1.6, -1.7, -2.24, -3.32, -1.86, -3.49, -5.21, -4.37, -2.66, -2.48, -4.02, -4.46, -3.64, -3.38, -3.38, -4.43, -4.71, -4.43, -4.74, -4.74, -5.06, -5.08, -5.1, -5.44, -5.72, -5.72, -5.72, -6.34, -6.34, -6.34, -7.27, -6.97, -6.98, -5.32, -3.45, -2.82, -4.1, -4.68, -3.69, -3.11, -3.41, -3.56, -3.71, -3.83, -3.58, -3.98, -4.13, -4.01, -4.07, -4.76, -5.1, -5.86, -6.28, -4.4, -3.2, -2.17, -1.79, -1.6, -0.8, -0.0, -0.0, -0.0, -0.0, 1.4, 1.4, 1.9, 2.4, 2.4, 2.24, 1.79, 1.79, 0.0, 0.0, 0.0, 0.0, 0.0, 0.0, 2.21, 2.5, 4.46, 3.45, 0.63, -3.39, -7.06, -7.64, -2.98, 0.0, 0.79, 1.4, 1.13, 0.57, 0.61, 0.61, 1.47, 1.54, 0.0, 0.0, -0.67, -1.94, -3.45, -4.3, -6.79, -7.54, -7.68, -7.96, -6.01, -4.22, -4.56, -5.06, -5.06, -3.9, -3.64, -3.64, -4.43, -4.43, -4.43, -4.74, -4.74, -5.06, -5.08, -5.1, -5.1, -5.72, -5.72, -5.72, -6.01, -6.34, -6.65, -6.65, -6.95, -6.32, -6.01, -4.6, -5.4, -6.43, -6.9, -7.73, -8.12, -7.9, -7.44, -7.13, -7.06, -6.33, -6.52, -5.85, -5.67, -5.21, -5.6, -5.72, -6.28, -6.23, -5.01, -3.49, -1.79, -1.0, -1.16, -0.99, -0.61, -0.0, -0.0, 0.99, 1.13, 2.21, 2.21, 2.21, 2.8, 3.13, 1.34, 1.2, 0.0, -0.6, -0.63, -1.34, -0.0, -0.0, 2.53, 3.79, 2.53, 2.21, 1.86, 0.0, -1.27, 0.0, 2.17, 5.38, 6.14, 4.54, 0.78, -3.0, -4.43, -5.59, -3.11, -1.54, -1.47, -1.52, -1.44, -1.35, -2.53, -3.39, -3.6, -3.72, -7.59, -6.96, -7.67, -7.64, -7.59, -6.7, -6.32, -6.39, -6.01, -6.01, -4.74, -4.43, -4.43, -4.74, -4.74, -5.06, -5.08, -5.1, -5.1, -5.72, -5.72, -5.72, -5.72, -5.72, -6.35, -6.34, -6.32, -6.62, -7.44, -8.27, -9.4, -8.86, -9.21, -9.21, -9.82, -9.5, -8.59, -8.2, -8.18, -7.73, -7.03, -6.56, -6.36, -5.73, -5.8, -5.69, -6.04, -5.71, -5.1, -3.22, -1.9, -1.2, -1.0, -1.16, -0.0, -0.0, 0.99, 1.13, 1.13, 2.53, 2.53, 2.53, 2.53, 2.8, 2.24, 1.2, 0.6, 0.0, -1.79, -1.26, -0.0, 1.6, 2.48, 1.19, 0.65, 0.65, 1.24, 1.34, 1.88, 4.29, 7.27, 8.09, 7.6, 4.62, 0.0, -5.63, -11.37, -10.91, -8.53, -6.05, -3.88, -2.35, -1.52, 0.0, 0.0, -0.63, -0.89, -1.26, -1.84, -3.78, -6.7, -8.94, -8.27, -7.54, -7.73, -7.54, -6.96, -6.96, -4.74, -4.74, -4.74, -4.74, -4.74, -5.06, -5.08, -5.1, -5.38, -5.72, -5.72, -5.72, -5.72, -5.72, -5.72, -6.01, -6.04, -6.64, -8.19, -9.77, -9.82, -9.21, -8.87, -9.19, -9.21, -8.2, -7.55, -6.88, -6.43, -6.43, -5.73, -5.73, -5.25, -5.28, -5.14, -5.02, -5.45, -5.71, -5.1, -4.05, -2.77, -2.22, -1.58, -1.34, -0.4, -0.0, 1.2, 1.13, 1.13, 1.98, 2.53, 2.53, 2.53, 2.8, 2.24, 1.79, 1.7, 0.8, -0.0, -1.26, -0.0, 1.24, 1.2, 0.65, 0.65, 0.65, 0.71, 0.63, 1.7, 3.51, 6.17, 8.94, 8.26, 5.25, -3.48, -9.86, -13.0, -13.6, -12.39, -10.35, -7.27, -4.07, -2.31, 0.0, 0.0, 0.0, 0.0, -1.2, -3.16, -3.55, -6.32, -8.58, -8.24, -5.36, -4.11, -4.52, -6.07, -6.07, -4.74, -4.74, -4.74, -4.74, -4.45, -5.06, -5.08, -5.1, -5.38, -5.36, -5.72, -5.72, -5.72, -5.72, -5.72, -5.72, -6.34, -6.67, -7.91, -8.58, -8.59, -7.57, -6.96, -7.61, -7.6, -7.16, -6.43, -5.73, -4.58, -4.58, -4.07, -4.07, -4.07, -4.1, -4.13, -4.05, -4.42, -4.71, -4.83, -4.45, -4.0, -3.56, -2.75, -2.18, -1.61, 0.0, -0.0, 1.2, 1.13, 1.13, 1.98, 2.53, 2.98, 2.97, 3.13, 3.13, 2.5, 1.24, -0.0, 0.0, 0.0, 0.63, 1.7, 1.86, 2.23, 2.4, 1.7, 0.45, 0.45, 1.2, 1.26, 1.26, 2.33, 0.94, -1.2, -5.81, -9.74, -12.01, -13.21, -13.0, -10.26, -7.68, -4.29, -2.04, -1.41, -1.23, -1.61, -3.07, -4.46, -6.32, -6.92, -8.24, -6.63, -2.15, -1.34, -3.2, -4.73, -4.73, -4.74, -4.74, -4.74, -4.74, -4.75, -5.06, -5.08, -5.38, -5.38, -5.36, -5.45, -5.72, -5.72, -5.72, -5.72, -5.72, -6.06, -6.97, -7.32, -7.96, -7.59, -6.92, -6.29, -5.64, -6.31, -6.27, -6.0, -5.73, -4.55, -4.03, -3.5, -3.5, -3.5, -3.5, -3.41, -3.47, -3.91, -4.0, -4.45, -4.45, -4.44, -4.42, -3.97, -3.35, -2.77, -1.73, 0.0, 0.0, -0.0, 1.2, 2.53, 2.53, 3.35, 3.39, 3.39, 3.82, 2.5, 1.9, 0.0, 0.0, 0.0, -0.45, 0.45, 2.68, 3.07, 3.13, 2.68, 3.2, 1.26, 0.0, -1.7, -4.2, -2.28, 0.0, 0.0, -1.79, -4.47, -6.61, -9.85, -11.28, -11.58, -9.86, -7.54, -6.01, -5.06, -4.07, -4.12, -4.93, -5.05, -4.46, -6.32, -4.75, -2.53, 0.0, 0.0, -2.79, -4.41, -4.41, -4.74, -4.74, -4.74, -4.74, -4.74, -4.75, -5.08, -5.38, -5.1, -5.1, -5.09, -5.34, -5.72, -5.72, -5.72, -5.72, -5.72, -6.35, -6.98, -7.33, -7.59, -7.19, -6.27, -5.62, -5.86, -5.62, -5.8, -5.77, -5.42, -4.7, -4.52, -4.01, -3.47, -3.47, -3.47, -4.07, -3.99, -4.57, -4.63, -4.44, -4.44, -4.42, -4.16, -3.76, -3.35, -2.75, -2.18, -1.24, -0.0, 0.99, 2.21, 3.35, 3.72, 3.35, 2.98, 3.72, 3.93, 1.88, 0.6, 0.0, 0.0, -0.54, 0.6, 3.13, 3.58, 3.13, 2.68, 3.07, 3.07, -2.68, -4.73, -5.3, -3.14, 0.0, 1.46, 1.47, 0.57, -1.24, -4.34, -7.45, -10.52, -10.67, -9.6, -8.66, -6.7, -5.09, -5.6, -5.2, -4.3, -3.39, -2.23, -2.23, -1.2, 0.0, -0.61, -2.48, -3.15, -3.15, -4.45, -4.45, -4.45, -4.45, -4.45, -4.75, -5.06, -5.08, -5.1, -5.1, -5.36, -5.34, -5.34, -5.34, -5.72, -5.72, -5.72, -6.35, -6.98, -7.24, -7.6, -6.94, -6.94, -6.27, -5.83, -5.83, -5.32, -5.28, -5.25, -5.21, -5.21, -4.66, -4.13, -4.01, -3.47, -4.17, -4.07, -4.65, -4.54, -5.04, -4.63, -4.42, -4.63, -3.94, -3.49, -2.86, -2.29, -1.57, -0.65, 0.0, 1.34, 3.07, 4.29, 4.65, 3.93, 4.29, 3.48, 3.16, 0.8, 0.0, 0.0, 0.76, 2.53, 3.53, 3.13, 2.24, 2.68, 3.07, 1.34, -2.24, -4.3, -4.74, -2.28, 0.0, 2.3, 5.51, 5.57, 0.68, -3.16, -5.2, -9.15, -10.6, -10.38, -8.93, -5.72, -4.52, -4.3, -4.43, -3.58, -2.17, -0.63, -1.0, -1.84, -2.0, -1.94, -1.94, -1.94, -1.94, -4.45, -4.45, -4.45, -4.45, -4.75, -4.75, -5.06, -5.08, -5.1, -5.1, -5.36, -5.09, -5.34, -5.34, -5.08, -5.72, -5.72, -5.98, -6.34, -6.71, -6.96, -6.96, -6.7, -6.53, -6.27, -5.8, -5.32, -5.28, -5.28, -5.25, -5.21, -4.55, -4.7, -4.7, -4.13, -4.13, -4.17, -4.07, -4.62, -5.17, -5.17, -5.0, -4.57, -3.94, -3.49, -2.86, -2.23, -1.76, -1.67, -1.08, 0.0, 1.34, 3.88, 5.29, 3.84, 2.5, 3.16, 2.23, 1.4, 0.54, 0.0, 1.86, 2.86, 3.82, 4.34, 1.34, 1.79, 0.63, 0.0, -1.7, -3.82, -3.78, -3.69, -1.54, 2.31, 5.2, 5.46, 2.8, -1.3, -5.32, -8.82, -10.8, -10.6, -8.25, -6.85, -5.51, -4.87, -4.02, -2.17, -0.63, -0.0, 0.0, -1.84, -3.16, -3.78, -3.08, -2.6, -2.6, -4.45, -4.45, -4.45, -4.75, -4.75, -4.75, -4.75, -5.08, -5.08, -5.38, -5.1, -5.09, -5.34, -5.34, -5.08, -5.72, -5.72, -5.98, -6.34, -6.33, -6.33, -6.31, -6.56, -6.29, -6.27, -6.04, -5.8, -5.77, -5.25, -5.25, -4.74, -4.74, -4.74, -4.55, -4.17, -4.01, -4.01, -4.17, -4.58, -4.65, -5.17, -5.2, -5.02, -3.94, -2.8, -1.75, -1.11, -1.59, -1.71, -1.63, -1.7, -0.53, 1.79, 4.55, 4.71, 2.21, 2.23, 2.23, 1.33, 1.13, 1.2, 1.7, 2.63, 2.91, 2.4, 3.2, 1.26, -0.95, -1.34, -1.2, -1.9, -2.51, -3.72, -2.73, -1.35, -0.73, -0.77, 0.0, 0.0, -3.6, -6.22, -11.71, -11.62, -8.76, -7.76, -6.67, -6.23, -3.82, -1.79, -0.63, -0.63, -0.6, -1.2, -2.84, -3.78, -4.43, -4.02, -4.02, -4.45, -4.45, -4.75, -4.75, -4.75, -4.75, -4.75, -5.08, -5.08, -5.1, -5.1, -5.36, -5.09, -5.34, -5.08, -5.32, -5.72, -5.7, -5.95, -5.69, -6.33, -6.33, -6.58, -6.31, -6.29, -5.86, -5.83, -6.0, -5.77, -5.25, -4.74, -4.74, -4.58, -4.2, -4.03, -4.17, -4.01, -4.01, -4.55, -4.62, -5.17, -5.2, -5.26, -4.0, -2.26, -0.57, -0.55, -1.69, -2.75, -2.33, -2.75, -2.4, -0.57, 2.0, 3.73, 3.79, 2.48, 2.95, 2.07, 2.0, 1.8, 1.58, 1.34, 1.2, 1.86, 3.53, 3.39, 0.0, -1.34, -0.89, -0.57, -0.57, -1.41, -4.36, -8.32, -8.66, -7.13, -3.91, -0.71, -1.13, -3.82, -10.77, -11.62, -10.21, -5.67, -4.47, -4.8, -3.2, -1.79, -1.26, -1.7, -1.7, -1.26, -1.61, -3.35, -4.73, -5.38, -5.38, -4.75, -4.75, -4.75, -4.75, -4.75, -4.75, -4.75, -4.75, -5.08, -5.1, -5.1, -5.1, -5.09, -5.34, -5.08, -5.32, -5.72, -5.7, -5.7, -5.69, -5.69, -5.92, -5.69, -5.92, -5.89, -5.86, -5.83, -5.8, -5.77, -5.28, -4.58, -4.58, -4.07, -4.2, -4.03, -4.17, -4.01, -4.13, -4.52, -4.74, -5.32, -5.2, -5.67, -5.08, -3.83, -1.52, -2.39, -3.5, -4.51, -5.23, -5.08, -4.75, -2.23, 0.0, 2.5, 3.49, 3.47, 3.47, 2.0, 2.11, 1.27, -0.0, 0.0, -0.0, 2.68, 3.58, 4.02, 2.6, 0.0, -0.89, -0.95, 0.0, 0.76, -0.75, -6.97, -10.12, -10.04, -7.73, -3.6, -1.35, -2.23, -8.72, -10.62, -10.4, -7.81, -4.02, -3.39, -1.86, -1.2, -1.2, -1.7, -1.79, -1.7, -1.24, -2.68, -4.09, -5.36, -5.36, -4.75, -4.75, -4.75, -4.75, -4.75, -4.75, -4.47, -4.47, -4.75, -4.81, -5.1, -5.1, -5.09, -5.09, -5.08, -5.32, -5.32, -5.7, -5.7, -5.69, -5.69, -5.69, -5.69, -5.69, -5.67, -5.89, -5.86, -5.83, -4.65, -4.62, -4.77, -4.58, -4.58, -4.74, -4.55, -4.7, -4.66, -4.66, -4.66, -4.7, -5.28, -5.83, -5.67, -5.72, -5.1, -4.71, -5.63, -5.83, -6.29, -6.33, -5.45, -4.45, -4.11, -1.88, 0.0, 2.53, 3.49, 3.45, 2.96, 1.41, -0.0, -0.65, -0.99, 0.6, 2.17, 2.91, 2.91, 1.79, 0.0, 0.0, -0.54, 0.0, 0.59, 1.48, -0.77, -6.2, -9.31, -8.16, -6.14, -4.14, -2.86, -4.52, -8.72, -8.96, -8.28, -6.51, -4.27, -0.89, -0.0, -0.53, -0.54, -0.6, -1.34, -1.49, -2.15, -3.6, -4.27, -4.27, -4.75, -4.75, -4.75, -4.75, -4.75, -4.47, -4.47, -4.47, -4.75, -4.75, -5.1, -5.1, -5.1, -5.09, -5.34, -5.08, -5.32, -5.29, -5.7, -5.7, -5.69, -5.69, -5.69, -5.69, -5.92, -5.89, -5.64, -5.23, -4.87, -4.51, -5.28, -5.25, -5.25, -5.25, -5.21, -5.21, -5.21, -5.18, -4.66, -4.7, -5.25, -5.8, -5.89, -6.08, -6.08, -6.34, -6.56, -5.62, -5.23, -5.06, -4.47, -4.11, -3.79, -3.79, -2.86, 0.89, 2.23, 2.82, 2.29, 0.56, -0.66, -1.16, -0.57, 0.6, 2.8, 3.45, 2.53, 0.63, 0.0, 0.0, 0.0, 0.0, -0.89, 0.0, 0.0, -2.34, -6.21, -6.68, -6.32, -6.11, -4.14, -2.84, -2.79, -5.59, -6.79, -6.79, -5.37, -2.86, -0.8, -0.0, -0.0, -0.0, 0.0, -0.95, -1.9, -2.68, -3.35, -3.35, -4.75, -4.75, -4.75, -4.75, -4.47, -4.47, -4.47, -4.47, -4.75, -4.75, -4.73, -5.1, -5.1, -5.1, -5.34, -5.08, -5.32, -5.06, -5.29, -5.29, -5.29, -5.26, -5.26, -5.69, -5.69, -5.67, -5.67, -5.67, -5.23, -6.21, -5.8, -6.43, -5.73, -5.92, -5.92, -5.21, -5.21, -5.21, -5.38, -4.7, -5.05, -5.11, -5.64, -6.34, -6.35, -6.33, -5.64, -4.68, -3.89, -3.32, -2.8, -2.86, -3.48, -3.79, -3.49, -2.48, -1.24, 1.84, 1.7, 0.58, -0.58, -0.71, -0.0, 1.26, 3.07, 4.46, 3.49, 1.88, -0.0, 0.0, 1.2, 0.8, -1.34, -3.15, -3.13, -1.6, -2.89, -2.91, -2.68, -2.6, -2.0, -0.61, 0.0, -0.57, -2.75, -4.46, -4.71, -3.83, -1.27, -0.65, 0.63, 1.2, 0.0, -0.63, -1.9, -2.5, -3.07, -3.07, -4.75, -4.75, -4.75, -4.47, -4.47, -4.47, -4.47, -4.47, -4.75, -4.75, -4.73, -4.73, -5.1, -5.1, -5.09, -5.08, -5.08, -5.32, -5.06, -5.29, -5.29, -5.04, -5.04, -5.26, -5.26, -5.67, -5.67, -5.89, -5.86, -6.27, -6.25, -6.46, -5.77, -5.77, -5.73, -5.25, -5.25, -5.21, -5.21, -4.7, -4.7, -5.28, -5.17, -5.69, -6.35, -5.95, -5.0, -4.17, -3.37, -2.93, -2.92, -2.36, -2.61, -3.2, -3.49, -3.2, -2.23, -0.71, 1.2, 1.11, -0.0, -0.0, 1.58, 3.35, 2.5, 3.16, 3.48, 2.07, 0.65, 0.6, 1.79, 1.79, 0.0, -4.56, -6.69, -3.06, 0.0, 0.66, 0.53, 0.0, -0.69, -0.65, -0.71, -0.67, -0.71, -1.75, -2.83, -2.83, -0.67, 0.0, 1.13, 1.49, 0.89, 0.0, -1.24, -2.21, -2.79, -2.79, -4.75, -4.75, -4.75, -4.47, -4.47, -4.47, -4.47, -4.47, -4.75, -4.75, -4.47, -4.73, -4.46, -5.1, -5.1, -5.34, -5.08, -5.32, -5.06, -5.29, -5.29, -5.29, -5.04, -5.04, -5.26, -5.26, -5.23, -5.89, -5.86, -5.83, -6.04, -5.83, -5.6, -5.32, -5.11, -5.28, -5.08, -5.25, -5.21, -5.38, -4.7, -4.74, -5.17, -5.26, -5.72, -5.7, -5.02, -4.51, -4.02, -3.42, -3.35, -2.92, -3.0, -2.84, -3.2, -3.48, -2.86, -1.84, -0.57, 1.26, 2.23, 1.9, 2.53, 3.35, 2.84, 2.2, 1.84, 1.84, 1.2, 1.24, 1.7, 1.6, 0.79, -1.56, -3.87, -2.33, 2.35, 5.45, 4.71, 1.5, -0.71, -2.76, -2.69, -2.54, -1.4, -1.14, -1.18, -0.69, 0.0, 0.67, 1.23, 1.88, 0.95, 0.0, -0.57, -1.2, -2.53, -2.53, -4.75, -4.75, -4.47, -4.47, -4.47, -4.47, -4.47, -4.47, -4.75, -4.75, -4.47, -4.73, -4.46, -4.71, -4.71, -5.09, -5.08, -5.08, -5.06, -5.06, -5.29, -5.29, -5.29, -5.04, -5.04, -5.26, -5.23, -5.89, -5.86, -5.83, -5.83, -5.36, -5.36, -5.36, -4.65, -4.62, -4.77, -5.25, -5.21, -5.21, -5.38, -5.21, -5.14, -4.6, -4.66, -4.66, -4.6, -4.21, -4.02, -4.08, -3.97, -3.8, -3.81, -3.42, -2.84, -3.16, -2.84, -2.23, -1.2, 0.45, 1.86, 2.84, 2.23, 1.9, 0.57, 1.13, 1.4, 2.15, 1.88, 1.24, 1.6, 1.79, 2.41, 2.15, 0.0, -0.75, 0.75, 3.04, 3.16, 0.0, -1.42, -3.39, -3.32, -2.44, -1.19, -0.69, -0.71, 0.0, 0.0, 0.64, 1.19, 1.8, 1.24, 0.6, 0.0, -0.57, -1.84, -1.84, -4.47, -4.47, -4.47, -4.47, -4.47, -4.47, -4.47, -4.47, -4.75, -4.75, -4.47, -4.73, -4.46, -4.71, -4.71, -5.09, -5.08, -5.08, -5.32, -5.06, -5.29, -5.29, -5.29, -5.29, -5.04, -5.26, -5.26, -5.23, -5.64, -5.62, -5.83, -5.36, -5.17, -5.17, -5.17, -4.65, -4.62, -4.58, -5.25, -5.21, -5.21, -5.21, -5.14, -3.88, -3.4, -4.03, -3.94, -4.05, -4.02, -4.54, -4.6, -4.66, -4.66, -4.45, -3.85, -2.86, -2.23, -2.23, -1.0, 0.0, 1.34, 2.15, 1.98, 1.58, 1.26, 1.2, 1.9, 2.86, 2.5, 1.86, 1.2, 2.24, 3.2, 4.36, 1.57, -0.76, -2.26, -2.31, -3.07, -2.9, -2.83, -2.1, -1.76, -1.84, -1.33, -0.63, 0.0, 0.0, 0.64, 0.72, 1.3, 1.35, 1.27, 0.54, 0.0, -0.57, -0.65, -1.2, -4.1, -4.1, -4.1, -4.1, -4.1, -4.47, -4.47, -4.47, -4.75, -4.47, -4.47, -4.73, -4.73, -4.71, -4.71, -4.69, -5.09, -5.08, -5.08, -5.06, -5.06, -5.29, -5.29, -5.29, -5.29, -5.04, -5.26, -5.23, -5.2, -5.86, -5.62, -5.36, -5.17, -5.17, -5.17, -4.68, -4.65, -4.62, -5.25, -5.25, -5.21, -5.21, -5.14, -4.0, -2.26, -2.86, -4.12, -4.72, -4.48, -4.72, -5.26, -5.46, -5.72, -5.46, -5.1, -3.84, -2.86, -2.23, -1.16, -0.71, 0.0, 1.7, 1.2, 1.86, 1.26, 2.4, 4.4, 2.8, 2.4, 1.79, 0.89, 1.2, 1.6, 2.18, 2.37, 0.78, -2.04, -6.14, -6.87, -5.73, -3.42, -1.33, -0.67, -0.57, 0.0, 0.0, 0.0, 0.61, 0.67, 1.41, 1.3, 1.3, 1.19, 0.59, 0.0, -0.54, -1.2, -0.65, -4.1, -4.1, -4.1, -4.1, -4.1, -4.1, -4.1, -4.47, -4.75, -4.47, -4.47, -4.47, -4.73, -4.46, -4.71, -4.45, -4.69, -5.09, -5.08, -5.32, -5.06, -5.06, -5.29, -5.29, -5.29, -5.04, -5.26, -5.23, -5.44, -5.4, -5.17, -5.17, -5.17, -5.17, -5.17, -5.17, -5.14, -5.32, -5.28, -5.25, -5.25, -4.74, -4.65, -4.66, -3.09, -3.45, -5.2, -5.83, -5.83, -5.62, -5.92, -6.35, -6.35, -6.08, -5.72, -4.75, -3.49, -1.76, -1.11, -0.61, 0.0, 0.89, 2.12, 1.6, 2.4, 3.35, 1.9, 1.9, 2.17, 2.24, 1.34, 0.89, 0.0, 0.0, 3.18, 5.35, 3.11, -1.47, -5.51, -5.8, -3.39, -1.32, 0.0, 0.0, 0.57, 0.57, 0.63, 0.67, 0.67, 1.36, 0.67, 0.67, 0.67, 0.72, 0.0, -0.65, -1.2, -1.2, -4.1, -4.1, -4.1, -4.1, -4.1, -4.1, -4.1, -4.1, -4.75, -4.47, -4.47, -4.47, -4.73, -4.46, -4.71, -4.45, -4.69, -5.09, -5.08, -5.08, -5.06, -5.06, -5.06, -5.29, -5.29, -5.29, -5.04, -5.26, -5.23, -5.2, -5.4, -5.17, -5.17, -5.17, -5.17, -5.17, -5.36, -5.14, -5.11, -5.28, -4.58, -4.58, -4.48, -4.84, -5.72, -6.2, -6.53, -6.94, -6.94, -6.94, -6.33, -6.35, -6.35, -6.06, -5.72, -5.1, -4.1, -2.18, -1.7, -1.08, 0.0, 0.0, 0.89, 2.4, 2.8, 3.39, 1.86, 3.39, 2.12, 2.24, 1.79, 0.45, 0.0, 0.0, 0.7, 4.12, 5.32, 3.07, 0.0, -2.29, -2.23, -1.16, 0.0, 0.0, 0.64, 0.59, 0.59, 0.69, 0.71, 0.71, 0.74, 0.69, 0.69, 0.0, 0.0, 0.0, -1.2, -1.2, -4.1, -4.1, -4.1, -4.1, -4.1, -4.1, -4.1, -4.1, -4.08, -4.47, -4.47, -4.47, -4.73, -4.46, -4.71, -4.71, -4.69, -4.69, -5.09, -5.08, -5.32, -5.06, -5.06, -5.06, -5.29, -5.29, -5.04, -5.26, -5.23, -5.2, -5.4, -5.17, -5.17, -5.17, -5.4, -5.17, -5.17, -5.14, -5.32, -5.28, -5.28, -4.77, -4.68, -4.6, -5.7, -6.31, -6.53, -6.56, -6.31, -6.31, -6.34, -6.35, -5.72, -5.44, -5.1, -5.1, -3.84, -2.77, -2.32, -1.16, -0.57, -0.54, 0.0, 0.89, 2.4, 2.8, 3.13, 3.39, 2.24, 2.24, 1.7, 0.63, 0.0, -0.63, -0.71, -0.73, 0.0, 2.3, 3.07, 2.17, 1.27, 1.11, 0.64, 0.67, 0.0, 0.0, 0.0, 0.0, 0.0, 0.0, 0.0, 0.0, 0.0, 0.0, 0.0, -0.59, -0.59, -0.59, -4.1, -4.1, -4.1, -4.1, -4.1, -4.1, -4.1, -4.08, -4.08, -4.08, -4.47, -4.47, -4.73, -4.46, -4.71, -4.71, -4.69, -4.69, -4.69, -5.08, -5.08, -5.32, -5.06, -5.06, -5.06, -5.29, -5.29, -5.26, -5.02, -5.23, -5.2, -5.86, -5.62, -5.17, -5.4, -5.4, -5.17, -5.36, -5.32, -5.11, -5.28, -4.77, -4.68, -4.6, -4.63, -5.26, -5.2, -4.54, -4.57, -5.04, -5.06, -5.45, -5.38, -4.81, -4.47, -4.47, -4.08, -3.42, -2.77, -1.8, -1.19, -1.13, -0.57, 0.0, 1.79, 2.68, 3.13, 4.02, 2.68, 2.63, 2.4, 1.26, 0.0, -0.6, -1.61, -2.48, -2.35, 0.0, 3.16, 6.24, 8.5, 8.35, 6.24, 3.41, 0.0, -0.62, -1.19, -1.88, -2.06, -2.12, -1.36, -1.49, -1.36, -1.52, -1.44, -1.41, -1.41, -1.41, -4.1, -4.1, -4.1, -4.1, -4.1, -4.1, -4.1, -4.08, -4.08, -4.08, -4.08, -4.47, -4.73, -4.46, -4.71, -4.71, -4.45, -4.69, -4.69, -5.08, -5.08, -5.32, -5.06, -5.06, -5.06, -5.29, -5.29, -5.04, -5.26, -5.23, -5.64, -5.86, -5.86, -5.62, -5.86, -5.4, -5.4, -5.17, -5.14, -5.32, -5.28, -5.28, -4.65, -4.57, -4.42, -4.63, -3.91, -3.89, -3.89, -4.08, -3.94, -4.69, -4.73, -4.75, -4.47, -4.46, -4.08, -4.08, -2.96, -2.29, -2.36, -1.76, -1.16, 0.0, 0.45, 2.24, 2.68, 1.79, 2.6, 2.5, 2.21, 1.24, -0.0, 0.0, -1.24, -1.61, -1.23, 0.0, 2.97, 6.9, 11.37, 11.31, 8.6, 4.95, 2.13, 0.0, -0.57, -2.22, -2.88, -2.72, -2.97, -2.12, -2.18, -2.31, -2.31, -2.26, -2.26, -2.26, -4.1, -4.1, -4.1, -4.1, -4.1, -4.1, -3.84, -4.08, -4.08, -4.08, -4.08, -4.47, -4.73, -4.46, -4.46, -4.71, -4.45, -4.69, -4.69, -4.69, -5.08, -5.08, -5.32, -5.06, -5.06, -5.06, -5.29, -5.04, -5.26, -5.67, -5.89, -5.64, -5.86, -5.86, -5.86, -5.86, -5.64, -5.4, -5.36, -5.14, -5.32, -5.11, -5.14, -4.54, -4.63, -3.97, -3.94, -3.91, -4.08, -4.08, -3.94, -4.0, -3.83, -4.75, -4.81, -4.46, -4.73, -4.08, -3.42, -2.96, -2.8, -2.18, -1.8, -0.65, 0.8, 1.34, 2.68, 1.34, 1.7, 2.5, 1.61, 1.24, 0.57, -0.0, 0.0, 0.0, 0.0, 1.47, 3.88, 7.27, 10.18, 10.1, 7.0, 4.95, 3.53, 2.15, 0.0, -1.3, -3.9, -4.44, -2.98, -2.88, -2.8, -3.2, -2.9, -2.2, -2.2, -2.2, -4.1, -4.1, -4.1, -4.1, -4.1, -4.1, -3.84, -4.08, -4.08, -4.08, -4.08, -4.47, -4.47, -4.46, -4.46, -4.71, -4.45, -4.69, -4.69, -4.69, -4.66, -5.08, -5.32, -5.06, -5.06, -5.06, -5.29, -5.29, -5.26, -5.69, -5.67, -5.64, -5.86, -5.86, -5.86, -5.86, -5.64, -5.86, -5.62, -5.83, -5.32, -5.32, -5.14, -4.72, -4.6, -4.63, -4.16, -4.12, -4.12, -4.12, -3.94, -3.52, -3.4, -3.42, -4.73, -4.73, -4.73, -4.08, -3.83, -3.4, -2.96, -2.8, -1.73, -0.59, 0.65, 0.95, 2.24, 2.24, 2.24, 0.45, 0.6, 0.57, 0.71, 0.57, 0.6, 1.34, 1.86, 3.16, 6.08, 7.2, 7.64, 6.8, 6.31, 6.52, 6.16, 3.59, 0.7, -1.36, -3.79, -3.43, -2.98, -2.73, -2.73, -2.48, -2.48, -2.07, -2.07, -2.07, -4.1, -4.1, -4.1, -4.1, -4.1, -4.1, -3.84, -4.08, -4.08, -4.08, -4.08, -4.47, -4.47, -4.46, -4.46, -4.71, -4.45, -4.69, -4.69, -4.69, -4.69, -5.08, -5.08, -5.32, -5.06, -5.06, -5.29, -5.29, -5.69, -5.69, -5.67, -5.89, -5.64, -5.86, -5.86, -5.86, -5.64, -5.64, -5.86, -5.62, -5.36, -5.14, -5.14, -4.72, -4.8, -4.63, -4.63, -4.12, -4.12, -3.94, -3.49, -3.37, -2.96, -2.77, -3.64, -4.08, -4.47, -4.47, -3.83, -3.4, -3.4, -3.0, -1.73, -0.59, 0.0, 1.58, 2.4, 2.68, 2.24, 0.89, 0.45, 0.63, 1.26, 1.86, 2.12, 2.24, 3.07, 4.3, 6.79, 7.2, 5.69, 5.89, 8.74, 9.76, 8.4, 5.01, 1.38, -0.67, -2.48, -2.84, -3.14, -2.79, -1.9, -1.2, -1.34, -1.7, -1.7, -1.7, -4.1, -4.1, -4.1, -4.1, -4.1, -4.1, -3.84, -4.08, -4.08, -4.08, -4.08, -4.47, -4.47, -4.73, -4.46, -4.71, -4.71, -4.45, -4.69, -4.69, -4.69, -5.08, -5.08, -5.32, -5.06, -5.06, -5.29, -5.29, -5.7, -5.69, -5.92, -5.67, -5.89, -5.86, -5.86, -5.86, -5.64, -5.64, -5.64, -5.86, -5.62, -5.36, -5.36, -5.2, -4.57, -4.6, -4.4, -4.6, -3.94, -4.16, -3.52, -2.92, -2.29, -2.29, -2.44, -2.96, -2.77, -3.42, -3.84, -3.83, -3.4, -2.77, -2.4, -0.59, 0.0, 0.63, 1.2, 1.6, 1.49, 1.86, 1.26, 0.0, 0.63, 1.49, 2.12, 2.68, 3.58, 4.02, 4.87, 4.66, 5.06, 5.38, 8.37, 9.42, 7.82, 5.01, 0.0, -1.23, -1.33, -1.16, -2.21, -2.17, -0.6, -0.0, -0.0, -0.61, -0.61, -0.61, -4.1, -4.1, -4.1, -4.1, -4.1, -4.1, -3.84, -4.08, -4.08, -4.08, -4.08, -4.47, -4.47, -4.73, -4.46, -4.46, -4.71, -4.45, -4.69, -4.69, -4.69, -5.08, -5.08, -5.32, -5.32, -5.06, -5.29, -5.7, -5.7, -5.69, -5.69, -5.92, -5.89, -5.89, -5.86, -5.64, -5.64, -5.64, -5.64, -5.64, -5.86, -5.17, -5.17, -5.2, -4.57, -4.6, -4.6, -4.6, -4.4, -3.97, -3.35, -2.92, -2.77, -2.29, -2.29, -2.29, -1.65, -2.14, -2.77, -3.42, -3.42, -2.8, -2.2, -0.51, 0.0, 0.0, 0.63, 1.2, 1.86, 2.23, 1.58, 0.57, -0.6, -0.0, 1.2, 2.24, 3.13, 3.58, 4.02, 4.0, 3.15, 4.36, 5.59, 5.29, 3.86, 1.44, 0.0, -0.55, -0.61, 0.0, -0.59, -1.58, -1.34, -0.0, -0.0, -0.0, -0.0, -0.0, -4.1, -4.1, -4.1, -4.1, -4.1, -4.1, -3.84, -4.08, -4.08, -4.08, -4.08, -4.47, -4.47, -4.73, -4.46, -4.46, -4.71, -4.45, -4.69, -4.69, -4.69, -5.34, -5.08, -5.32, -5.32, -5.06, -5.29, -5.7, -5.7, -5.95, -5.69, -5.92, -5.67, -5.89, -5.89, -5.64, -5.89, -5.89, -5.89, -5.64, -5.64, -5.4, -5.17, -5.2, -5.02, -4.6, -4.6, -4.6, -4.63, -3.97, -3.56, -3.4, -2.96, -2.29, -2.29, -1.76, -1.65, -1.23, -1.8, -2.14, -3.0, -2.82, -2.22, -0.53, 0.0, 0.0, 0.0, 0.0, 0.89, 1.6, 2.12, 1.26, 0.6, 0.0, 0.89, 1.34, 2.24, 3.13, 3.13, 2.68, 3.16, 3.15, 3.38, 2.31, 0.0, -0.7, -0.7, 0.0, -0.45, -0.6, 0.0, -1.27, -2.17, -1.2, -0.63, -0.6, -0.6, -0.6, -4.1, -4.1, -4.1, -4.1, -4.1, -4.1, -3.84, -4.08, -4.08, -4.08, -4.08, -4.47, -4.47, -4.47, -4.73, -4.46, -4.71, -4.71, -4.69, -4.69, -4.69, -5.34, -5.08, -5.32, -5.32, -5.32, -5.46, -5.7, -5.7, -5.7, -5.95, -5.69, -5.92, -5.67, -5.89, -5.89, -5.89, -5.89, -5.89, -5.89, -5.64, -5.2, -5.2, -5.2, -5.23, -4.6, -4.6, -4.6, -4.63, -4.2, -4.03, -3.4, -2.96, -2.96, -2.44, -1.76, -1.76, -1.12, -1.12, -1.65, -2.32, -2.61, -1.58, -0.61, -0.65, -0.71, -0.63, 0.0, 0.0, 0.45, 0.89, 0.89, 0.6, 1.24, 0.63, 1.34, 1.79, 2.68, 2.4, 1.9, 1.88, 2.23, 2.11, -0.79, -1.42, -2.11, -0.65, 0.63, -0.0, -0.89, -0.57, -1.19, -2.5, -1.79, -1.34, -1.34, -1.34, -1.34, -4.1, -4.1, -4.1, -4.1, -4.1, -4.1, -3.84, -4.08, -4.08, -4.08, -4.08, -4.08, -4.08, -4.47, -4.73, -4.46, -4.46, -4.71, -4.45, -4.69, -4.69, -5.34, -5.08, -5.32, -5.32, -5.32, -5.72, -5.7, -5.7, -5.7, -5.95, -5.69, -5.92, -5.92, -5.89, -5.89, -5.89, -5.89, -5.67, -5.67, -5.89, -5.64, -5.2, -5.2, -5.02, -4.6, -4.6, -4.6, -4.63, -4.0, -4.03, -3.4, -3.42, -2.96, -2.96, -2.29, -1.76, -1.76, -1.2, -1.12, -1.65, -2.36, -1.76, -1.13, -1.16, -1.2, -1.24, -0.95, 0.0, -0.0, 0.0, 0.0, 0.0, 0.57, 1.26, 1.34, 1.34, 1.2, 0.71, 0.65, 1.2, 1.33, 0.74, 0.0, 0.0, 0.0, 0.0, 0.0, -0.6, -1.7, -1.8, -1.88, -2.5, -2.17, -2.17, -1.7, -1.7, -1.7, -4.1, -4.1, -4.1, -4.1, -4.1, -4.1, -3.84, -4.08, -4.08, -4.08, -4.08, -4.08, -4.08, -4.47, -4.73, -4.46, -4.46, -4.71, -4.45, -4.69, -5.09, -5.34, -5.08, -5.32, -5.32, -5.32, -5.72, -5.72, -5.7, -5.7, -5.7, -5.95, -5.69, -5.92, -5.92, -5.89, -5.89, -5.89, -5.67, -5.67, -5.67, -5.23, -5.44, -5.23, -5.02, -4.6, -4.6, -4.6, -4.63, -4.0, -4.03, -4.05, -3.4, -3.42, -2.96, -2.29, -2.29, -1.76, -1.76, -1.76, -1.76, -2.16, -1.73, -1.58, -1.84, -1.61, -1.2, -1.26, -0.45, -0.0, -0.45, 0.0, 0.0, 0.0, 0.63, 0.45, -0.0, -0.89, -1.24, -0.65, 0.0, 0.0, 0.0, 1.51, 2.31, 1.59, 0.57, -0.0, -0.6, -1.7, -2.51, -2.48, -1.7, -2.15, -2.4, -2.4, -2.4, -2.4, -4.1, -4.1, -4.1, -4.1, -4.1, -4.1, -3.84, -4.08, -4.08, -4.08, -4.08, -4.08, -4.08, -4.08, -4.73, -4.46, -4.46, -4.71, -4.45, -4.69, -5.09, -5.34, -5.34, -5.08, -5.32, -5.32, -5.72, -5.72, -5.72, -5.7, -5.7, -5.7, -5.95, -5.69, -5.92, -5.92, -5.67, -5.67, -5.67, -5.67, -5.67, -5.23, -5.23, -5.23, -5.02, -4.6, -4.6, -4.6, -4.63, -4.0, -4.03, -4.05, -4.05, -3.64, -3.42, -2.77, -2.29, -2.29, -2.29, -2.29, -2.29, -2.32, -2.36, -2.2, -2.48, -2.51, -1.84, -1.49, -1.34, -0.63, -0.63, -0.45, -0.45, 0.0, 0.89, 0.45, -0.89, -1.79, -2.4, -2.15, -1.58, -1.27, -0.72, 0.0, 0.78, 1.54, 0.61, -0.0, -0.0, -0.8, -2.15, -2.17, -0.95, -1.58, -2.5, -2.5, -2.5, -2.5, -4.1, -4.1, -4.1, -4.1, -4.1, -4.1, -4.1, -4.08, -4.08, -4.08, -4.08, -4.08, -4.08, -4.47, -4.73, -4.73, -4.46, -4.71, -4.71, -4.69, -5.09, -5.09, -5.34, -5.08, -5.32, -5.32, -5.32, -5.72, -5.72, -5.72, -5.7, -5.7, -5.7, -5.95, -5.69, -5.92, -5.92, -5.67, -5.92, -5.92, -5.92, -5.23, -5.23, -5.02, -5.26, -4.6, -4.6, -4.6, -4.63, -4.44, -4.03, -4.71, -4.46, -4.05, -3.42, -2.77, -2.29, -2.29, -2.29, -2.44, -2.77, -2.8, -3.04, -2.82, -2.86, -2.48, -1.84, -1.61, -1.26, -0.45, -0.63, -0.45, -0.45, 0.0, 0.45, 0.0, -0.89, -1.79, -2.63, -2.91, -3.07, -2.84, -2.44, -3.02, -0.79, 0.0, 0.0, 0.0, -0.0, -0.0, -1.2, -1.58, -0.99, -1.26, -1.9, -2.21, -2.21, -2.21, -4.1, -4.1, -4.1, -4.1, -4.1, -4.1, -4.1, -4.08, -4.08, -4.08, -4.08, -4.08, -4.08, -4.47, -4.47, -4.73, -4.46, -4.71, -4.71, -4.69, -5.09, -5.09, -5.34, -5.08, -5.08, -5.32, -5.32, -5.72, -5.72, -5.72, -5.72, -5.7, -5.7, -5.95, -5.95, -5.92, -5.92, -5.92, -5.92, -5.69, -5.69, -5.26, -5.26, -5.26, -5.26, -5.04, -4.6, -4.6, -4.63, -4.66, -4.45, -5.36, -4.71, -4.46, -4.08, -3.45, -3.0, -2.77, -2.77, -2.96, -3.42, -3.45, -3.22, -2.82, -2.84, -2.86, -2.23, -1.84, -1.61, -0.89, -0.89, -1.34, -0.89, -0.0, -0.0, -0.0, -0.89, -2.24, -3.13, -3.53, -3.53, -3.6, -4.12, -4.5, -3.78, -1.54, -0.78, -0.61, 0.0, -0.0, -0.0, -1.16, -1.9, -1.26, -1.86, -1.9, -1.9, -1.9, -4.1, -4.1, -4.1, -4.1, -4.1, -4.1, -4.1, -4.36, -4.08, -4.08, -4.08, -4.08, -4.08, -4.47, -4.47, -4.73, -4.46, -4.71, -4.71, -4.45, -5.09, -5.09, -5.34, -5.34, -5.08, -5.08, -5.32, -5.32, -5.72, -5.72, -5.72, -5.98, -5.7, -5.7, -5.95, -5.69, -5.92, -5.92, -5.92, -5.69, -5.69, -5.69, -5.26, -5.26, -5.04, -5.04, -4.6, -4.6, -4.63, -4.66, -4.45, -5.36, -5.36, -4.71, -4.08, -3.68, -3.0, -3.0, -2.77, -3.42, -3.84, -4.1, -3.45, -3.47, -3.49, -2.86, -2.86, -2.23, -2.23, -1.9, -1.79, -1.79, -1.2, -0.89, 0.0, -0.32, -1.2, -1.79, -3.07, -3.13, -3.58, -3.82, -4.12, -5.38, -4.46, -3.13, -2.28, -1.36, -0.59, -0.45, -0.0, -0.53, -1.61, -1.58, -1.49, -1.7, -1.7, -1.7, -4.1, -4.1, -4.1, -4.1, -4.1, -4.1, -4.1, -4.1, -4.08, -4.08, -4.08, -4.08, -4.08, -4.08, -4.47, -4.73, -4.46, -4.46, -4.71, -4.45, -4.69, -5.09, -5.09, -5.34, -5.08, -5.08, -5.32, -5.32, -5.72, -5.72, -5.72, -5.72, -5.98, -5.7, -5.7, -5.95, -5.69, -5.69, -5.69, -5.69, -5.69, -5.69, -5.04, -5.04, -5.04, -5.04, -5.04, -4.84, -4.63, -4.66, -4.45, -5.36, -5.36, -5.1, -4.73, -4.1, -3.45, -3.45, -3.21, -3.42, -4.08, -3.84, -3.45, -3.47, -3.49, -3.49, -3.2, -2.86, -2.58, -2.21, -2.12, -1.79, -1.2, 0.0, 0.0, -0.0, -0.95, -2.4, -2.68, -3.39, -3.58, -4.3, -5.09, -5.86, -5.48, -3.87, -2.35, -1.48, -0.67, -0.57, -0.63, -0.57, -1.0, -1.58, -1.7, -1.79, -1.79, -1.79, -4.1, -4.1, -4.1, -4.1, -4.1, -4.1, -4.1, -4.1, -4.36, -4.47, -4.47, -4.47, -4.08, -4.08, -4.47, -4.73, -4.46, -4.46, -4.71, -4.71, -4.69, -5.09, -5.09, -5.34, -5.08, -5.08, -5.08, -5.32, -5.72, -5.72, -5.72, -5.72, -5.98, -5.7, -5.7, -5.95, -5.95, -5.69, -5.69, -5.69, -5.69, -5.7, -5.29, -5.29, -5.29, -5.29, -5.29, -4.84, -4.63, -4.66, -4.71, -5.36, -5.72, -5.1, -5.1, -4.47, -4.1, -4.1, -3.68, -3.84, -4.08, -3.42, -3.42, -3.45, -3.22, -3.22, -3.2, -2.86, -2.86, -2.51, -2.5, -2.24, -1.79, 0.0, 0.0, -0.63, -1.26, -2.21, -3.07, -3.39, -4.47, -4.73, -5.69, -6.24, -5.99, -4.76, -2.28, -0.75, 0.0, 0.0, 0.0, 0.0, 0.0, -0.63, -1.27, -1.86, -1.86, -1.86, -4.1, -4.1, -4.1, -4.1, -4.1, -4.1, -4.1, -4.1, -4.36, -4.47, -4.47, -4.47, -4.08, -4.08, -4.47, -4.73, -4.46, -4.46, -4.71, -4.71, -4.69, -5.09, -5.09, -5.34, -5.08, -5.08, -5.08, -5.32, -5.72, -5.72, -5.72, -5.72, -5.98, -5.7, -5.7, -5.95, -5.95, -5.69, -5.69, -5.69, -5.69, -5.7, -5.29, -5.29, -5.29, -5.29, -5.29, -4.84, -4.63, -4.66, -4.71, -5.36, -5.72, -5.1, -5.1, -4.47, -4.1, -4.1, -3.68, -3.84, -4.08, -3.42, -3.42, -3.45, -3.22, -3.22, -3.2, -2.86, -2.86, -2.51, -2.5, -2.24, -1.79, 0.0, 0.0, -0.63, -1.61, -2.21, -3.07, -3.39, -4.47, -4.73, -5.69, -5.94, -6.2, -4.55, -3.07, -1.55, 0.0, 0.0, 0.76, 0.64, 0.7, 0.0, 0.0, -0.61, -0.61, -0.61]}]